Wetterdaten: Mittwoch, 18.07.2018
Datum Zeit Temp. Aussen Temp. o. S. +5cm Feuchte Auss Luftdruck Regen Sonnenschein Regendauer Solar Windben Empfang
18.07.2018 00:00 18,6 C 16,7 C 17,2 C 71 % 1015,7 hPa 0,0 l/m 0 min 0 min 0 W/m 4,5 km/h (1 Bft) 100,00 %
18.07.2018 00:02 18,6 C 16,7 C 17,2 C 71 % 1015,7 hPa 0,0 l/m 0 min 0 min 0 W/m 2,3 km/h (1 Bft) 10,00 %
18.07.2018 00:04 18,6 C 16,7 C 17,2 C 71 % 1015,7 hPa 0,0 l/m 0 min 0 min 0 W/m 4,5 km/h (1 Bft) 94,59 %
18.07.2018 00:08 18,5 C 16,7 C 17,2 C 71 % 1015,8 hPa 0,0 l/m 0 min 0 min 0 W/m 4,5 km/h (1 Bft) 100,00 %
18.07.2018 00:10 18,4 C 16,7 C 17,2 C 71 % 1015,8 hPa 0,0 l/m 0 min 0 min 0 W/m 2,3 km/h (1 Bft) 100,00 %
18.07.2018 00:12 18,4 C 16,7 C 17,2 C 71 % 1015,8 hPa 0,0 l/m 0 min 0 min 0 W/m 6,8 km/h (2 Bft) 100,00 %
18.07.2018 00:14 18,4 C 16,7 C 17,2 C 71 % 1015,8 hPa 0,0 l/m 0 min 0 min 0 W/m 4,5 km/h (1 Bft) 97,87 %
18.07.2018 00:16 18,3 C 16,7 C 17,2 C 71 % 1015,8 hPa 0,0 l/m 0 min 0 min 0 W/m 4,5 km/h (1 Bft) 100,00 %
18.07.2018 00:18 18,3 C 16,7 C 17,2 C 72 % 1015,8 hPa 0,0 l/m 0 min 0 min 0 W/m 2,3 km/h (1 Bft) 100,00 %
18.07.2018 00:20 18,3 C 16,7 C 16,7 C 72 % 1015,8 hPa 0,0 l/m 0 min 0 min 0 W/m 4,5 km/h (1 Bft) 100,00 %
18.07.2018 00:22 18,2 C 16,1 C 16,7 C 72 % 1015,8 hPa 0,0 l/m 0 min 0 min 0 W/m 4,5 km/h (1 Bft) 97,87 %
18.07.2018 00:24 18,2 C 16,1 C 16,7 C 72 % 1015,8 hPa 0,0 l/m 0 min 0 min 0 W/m 4,5 km/h (1 Bft) 100,00 %
18.07.2018 00:26 18,2 C 16,1 C 16,7 C 72 % 1015,8 hPa 0,0 l/m 0 min 0 min 0 W/m 4,5 km/h (1 Bft) 100,00 %
18.07.2018 00:28 18,1 C 16,1 C 16,7 C 72 % 1015,8 hPa 0,0 l/m 0 min 0 min 0 W/m 2,3 km/h (1 Bft) 97,83 %
18.07.2018 00:30 18,1 C 16,1 C 16,7 C 72 % 1015,8 hPa 0,0 l/m 0 min 0 min 0 W/m 2,3 km/h (1 Bft) 97,87 %
18.07.2018 00:32 18,1 C 16,1 C 16,7 C 73 % 1015,8 hPa 0,0 l/m 0 min 0 min 0 W/m 2,3 km/h (1 Bft) 97,87 %
18.07.2018 00:34 18,0 C 16,1 C 16,7 C 73 % 1015,8 hPa 0,0 l/m 0 min 0 min 0 W/m 0,0 km/h (0 Bft) 97,87 %
18.07.2018 00:36 17,9 C 16,1 C 16,7 C 74 % 1015,8 hPa 0,0 l/m 0 min 0 min 0 W/m 0,0 km/h (0 Bft) 93,62 %
18.07.2018 00:38 17,9 C 16,1 C 16,7 C 74 % 1015,8 hPa 0,0 l/m 0 min 0 min 0 W/m 0,0 km/h (0 Bft) 100,00 %
18.07.2018 00:40 17,9 C 16,1 C 16,7 C 74 % 1015,8 hPa 0,0 l/m 0 min 0 min 0 W/m 0,0 km/h (0 Bft) 100,00 %
18.07.2018 00:42 17,8 C 16,1 C 16,7 C 74 % 1015,8 hPa 0,0 l/m 0 min 0 min 0 W/m 0,0 km/h (0 Bft) 97,87 %
18.07.2018 00:44 17,8 C 16,1 C 16,1 C 75 % 1015,7 hPa 0,0 l/m 0 min 0 min 0 W/m 0,0 km/h (0 Bft) 97,87 %
18.07.2018 00:46 17,7 C 16,1 C 16,1 C 75 % 1015,8 hPa 0,0 l/m 0 min 0 min 0 W/m 0,0 km/h (0 Bft) 97,87 %
18.07.2018 00:48 17,7 C 15,6 C 16,1 C 75 % 1015,8 hPa 0,0 l/m 0 min 0 min 0 W/m 0,0 km/h (0 Bft) 95,74 %
18.07.2018 00:50 17,7 C 15,6 C 16,1 C 75 % 1015,8 hPa 0,0 l/m 0 min 0 min 0 W/m 0,0 km/h (0 Bft) 95,74 %
18.07.2018 00:52 17,7 C 15,6 C 15,6 C 75 % 1015,7 hPa 0,0 l/m 0 min 0 min 0 W/m 0,0 km/h (0 Bft) 97,83 %
18.07.2018 00:54 17,6 C 15,6 C 15,6 C 75 % 1015,8 hPa 0,0 l/m 0 min 0 min 0 W/m 0,0 km/h (0 Bft) 95,74 %
18.07.2018 00:56 17,6 C 15,6 C 15,6 C 75 % 1015,8 hPa 0,0 l/m 0 min 0 min 0 W/m 0,0 km/h (0 Bft) 97,87 %
18.07.2018 00:58 17,5 C 15,6 C 15,6 C 75 % 1015,8 hPa 0,0 l/m 0 min 0 min 0 W/m 2,3 km/h (1 Bft) 95,74 %
18.07.2018 01:00 17,5 C 15,6 C 15,6 C 75 % 1015,8 hPa 0,0 l/m 0 min 0 min 0 W/m 0,0 km/h (0 Bft) 95,74 %
18.07.2018 01:02 17,4 C 15,6 C 15,6 C 75 % 1015,7 hPa 0,0 l/m 0 min 0 min 0 W/m 0,0 km/h (0 Bft) 95,65 %
18.07.2018 01:04 17,4 C 15,6 C 15,6 C 75 % 1015,9 hPa 0,0 l/m 0 min 0 min 0 W/m 0,0 km/h (0 Bft) 95,74 %
18.07.2018 01:06 17,4 C 15,6 C 15,6 C 75 % 1015,8 hPa 0,0 l/m 0 min 0 min 0 W/m 0,0 km/h (0 Bft) 95,74 %
18.07.2018 01:08 17,3 C 15,6 C 15,6 C 75 % 1015,8 hPa 0,0 l/m 0 min 0 min 0 W/m 0,0 km/h (0 Bft) 95,74 %
18.07.2018 01:10 17,3 C 15,6 C 15,6 C 75 % 1015,9 hPa 0,0 l/m 0 min 0 min 0 W/m 0,0 km/h (0 Bft) 95,74 %
18.07.2018 01:12 17,2 C 15,6 C 15,6 C 75 % 1015,9 hPa 0,0 l/m 0 min 0 min 0 W/m 0,0 km/h (0 Bft) 95,74 %
18.07.2018 01:14 17,2 C 15,6 C 15,6 C 75 % 1015,8 hPa 0,0 l/m 0 min 0 min 0 W/m 0,0 km/h (0 Bft) 95,65 %
18.07.2018 01:16 17,2 C 15,6 C 15,6 C 75 % 1015,8 hPa 0,0 l/m 0 min 0 min 0 W/m 0,0 km/h (0 Bft) 95,74 %
18.07.2018 01:18 17,2 C 15,6 C 15,6 C 76 % 1015,9 hPa 0,0 l/m 0 min 0 min 0 W/m 0,0 km/h (0 Bft) 95,74 %
18.07.2018 01:20 17,1 C 15,0 C 15,6 C 76 % 1015,9 hPa 0,0 l/m 0 min 0 min 0 W/m 0,0 km/h (0 Bft) 95,74 %
18.07.2018 01:22 17,1 C 15,0 C 15,6 C 77 % 1015,9 hPa 0,0 l/m 0 min 0 min 0 W/m 0,0 km/h (0 Bft) 93,62 %
18.07.2018 01:24 17,1 C 15,0 C 15,0 C 77 % 1015,8 hPa 0,0 l/m 0 min 0 min 0 W/m 0,0 km/h (0 Bft) 95,74 %
18.07.2018 01:26 17,0 C 15,0 C 15,6 C 77 % 1015,9 hPa 0,0 l/m 0 min 0 min 0 W/m 0,0 km/h (0 Bft) 95,74 %
18.07.2018 01:28 16,9 C 15,0 C 15,0 C 77 % 1015,9 hPa 0,0 l/m 0 min 0 min 0 W/m 0,0 km/h (0 Bft) 93,48 %
18.07.2018 01:30 16,9 C 15,0 C 15,0 C 77 % 1015,9 hPa 0,0 l/m 0 min 0 min 0 W/m 0,0 km/h (0 Bft) 95,74 %
18.07.2018 01:32 16,9 C 15,0 C 15,0 C 77 % 1015,9 hPa 0,0 l/m 0 min 0 min 0 W/m 0,0 km/h (0 Bft) 95,83 %
18.07.2018 01:34 16,8 C 15,0 C 15,0 C 78 % 1015,9 hPa 0,0 l/m 0 min 0 min 0 W/m 0,0 km/h (0 Bft) 95,74 %
18.07.2018 01:36 16,8 C 15,0 C 15,0 C 78 % 1015,9 hPa 0,0 l/m 0 min 0 min 0 W/m 0,0 km/h (0 Bft) 95,74 %
18.07.2018 01:38 16,7 C 15,0 C 15,0 C 78 % 1015,9 hPa 0,0 l/m 0 min 0 min 0 W/m 0,0 km/h (0 Bft) 97,83 %
18.07.2018 01:40 16,7 C 15,0 C 15,0 C 78 % 1015,9 hPa 0,0 l/m 0 min 0 min 0 W/m 0,0 km/h (0 Bft) 97,87 %
18.07.2018 01:42 16,7 C 15,0 C 15,0 C 78 % 1015,9 hPa 0,0 l/m 0 min 0 min 0 W/m 0,0 km/h (0 Bft) 95,74 %
18.07.2018 01:44 16,6 C 15,0 C 15,0 C 78 % 1015,9 hPa 0,0 l/m 0 min 0 min 0 W/m 0,0 km/h (0 Bft) 95,74 %
18.07.2018 01:46 16,6 C 15,0 C 15,0 C 78 % 1015,9 hPa 0,0 l/m 0 min 0 min 0 W/m 0,0 km/h (0 Bft) 91,49 %
18.07.2018 01:48 16,6 C 15,0 C 15,0 C 78 % 1015,9 hPa 0,0 l/m 0 min 0 min 0 W/m 0,0 km/h (0 Bft) 95,74 %
18.07.2018 01:50 16,5 C 15,0 C 15,0 C 78 % 1015,9 hPa 0,0 l/m 0 min 0 min 0 W/m 0,0 km/h (0 Bft) 95,65 %
18.07.2018 01:52 16,5 C 15,0 C 15,0 C 78 % 1015,9 hPa 0,0 l/m 0 min 0 min 0 W/m 0,0 km/h (0 Bft) 95,74 %
18.07.2018 01:54 16,4 C 15,0 C 15,0 C 78 % 1015,9 hPa 0,0 l/m 0 min 0 min 0 W/m 0,0 km/h (0 Bft) 95,74 %
18.07.2018 01:56 16,4 C 15,0 C 15,0 C 78 % 1016,0 hPa 0,0 l/m 0 min 0 min 0 W/m 0,0 km/h (0 Bft) 95,74 %
18.07.2018 01:58 16,4 C 15,0 C 15,0 C 79 % 1015,9 hPa 0,0 l/m 0 min 0 min 0 W/m 0,0 km/h (0 Bft) 95,74 %
18.07.2018 02:00 16,3 C 15,0 C 15,0 C 79 % 1015,9 hPa 0,0 l/m 0 min 0 min 0 W/m 0,0 km/h (0 Bft) 93,62 %
18.07.2018 02:02 16,3 C 14,4 C 15,0 C 79 % 1015,9 hPa 0,0 l/m 0 min 0 min 0 W/m 0,0 km/h (0 Bft) 95,65 %
18.07.2018 02:04 16,3 C 14,4 C 15,0 C 79 % 1015,9 hPa 0,0 l/m 0 min 0 min 0 W/m 0,0 km/h (0 Bft) 93,62 %
18.07.2018 02:06 16,2 C 14,4 C 15,0 C 79 % 1015,9 hPa 0,0 l/m 0 min 0 min 0 W/m 0,0 km/h (0 Bft) 95,74 %
18.07.2018 02:08 16,2 C 14,4 C 15,0 C 79 % 1015,9 hPa 0,0 l/m 0 min 0 min 0 W/m 0,0 km/h (0 Bft) 91,49 %
18.07.2018 02:10 16,2 C 14,4 C 14,4 C 79 % 1015,9 hPa 0,0 l/m 0 min 0 min 0 W/m 0,0 km/h (0 Bft) 95,74 %
18.07.2018 02:12 16,1 C 14,4 C 14,4 C 79 % 1016,0 hPa 0,0 l/m 0 min 0 min 0 W/m 0,0 km/h (0 Bft) 95,65 %
18.07.2018 02:14 16,1 C 14,4 C 14,4 C 80 % 1016,0 hPa 0,0 l/m 0 min 0 min 0 W/m 0,0 km/h (0 Bft) 95,74 %
18.07.2018 02:16 16,1 C 14,4 C 14,4 C 80 % 1016,0 hPa 0,0 l/m 0 min 0 min 0 W/m 0,0 km/h (0 Bft) 95,74 %
18.07.2018 02:18 16,0 C 14,4 C 14,4 C 80 % 1015,9 hPa 0,0 l/m 0 min 0 min 0 W/m 0,0 km/h (0 Bft) 95,74 %
18.07.2018 02:20 16,0 C 14,4 C 14,4 C 80 % 1015,9 hPa 0,0 l/m 0 min 0 min 0 W/m 0,0 km/h (0 Bft) 97,87 %
18.07.2018 02:22 15,9 C 14,4 C 14,4 C 80 % 1015,9 hPa 0,0 l/m 0 min 0 min 0 W/m 0,0 km/h (0 Bft) 100,00 %
18.07.2018 02:24 15,9 C 14,4 C 14,4 C 80 % 1016,0 hPa 0,0 l/m 0 min 0 min 0 W/m 0,0 km/h (0 Bft) 100,00 %
18.07.2018 02:26 15,8 C 14,4 C 14,4 C 80 % 1015,9 hPa 0,0 l/m 0 min 0 min 0 W/m 0,0 km/h (0 Bft) 100,00 %
18.07.2018 02:28 15,8 C 14,4 C 14,4 C 80 % 1015,9 hPa 0,0 l/m 0 min 0 min 0 W/m 0,0 km/h (0 Bft) 95,74 %
18.07.2018 02:30 15,8 C 14,4 C 14,4 C 80 % 1016,0 hPa 0,0 l/m 0 min 0 min 0 W/m 0,0 km/h (0 Bft) 100,00 %
18.07.2018 02:32 15,8 C 14,4 C 14,4 C 80 % 1016,0 hPa 0,0 l/m 0 min 0 min 0 W/m 0,0 km/h (0 Bft) 100,00 %
18.07.2018 02:34 15,7 C 14,4 C 14,4 C 81 % 1016,0 hPa 0,0 l/m 0 min 0 min 0 W/m 0,0 km/h (0 Bft) 97,87 %
18.07.2018 02:36 15,7 C 14,4 C 14,4 C 81 % 1015,9 hPa 0,0 l/m 0 min 0 min 0 W/m 0,0 km/h (0 Bft) 100,00 %
18.07.2018 02:38 15,7 C 14,4 C 14,4 C 81 % 1016,0 hPa 0,0 l/m 0 min 0 min 0 W/m 0,0 km/h (0 Bft) 95,74 %
18.07.2018 02:40 15,6 C 14,4 C 14,4 C 81 % 1016,0 hPa 0,0 l/m 0 min 0 min 0 W/m 0,0 km/h (0 Bft) 100,00 %
18.07.2018 02:42 15,6 C 13,9 C 14,4 C 81 % 1016,0 hPa 0,0 l/m 0 min 0 min 0 W/m 0,0 km/h (0 Bft) 97,87 %
18.07.2018 02:44 15,6 C 13,9 C 14,4 C 81 % 1016,1 hPa 0,0 l/m 0 min 0 min 0 W/m 0,0 km/h (0 Bft) 97,87 %
18.07.2018 02:46 15,6 C 13,9 C 13,9 C 81 % 1016,1 hPa 0,0 l/m 0 min 0 min 0 W/m 0,0 km/h (0 Bft) 97,87 %
18.07.2018 02:48 15,5 C 13,9 C 13,9 C 81 % 1016,1 hPa 0,0 l/m 0 min 0 min 0 W/m 0,0 km/h (0 Bft) 97,83 %
18.07.2018 02:50 15,5 C 13,9 C 13,9 C 81 % 1015,9 hPa 0,0 l/m 0 min 0 min 0 W/m 0,0 km/h (0 Bft) 97,87 %
18.07.2018 02:52 15,4 C 13,9 C 13,9 C 81 % 1015,9 hPa 0,0 l/m 0 min 0 min 0 W/m 0,0 km/h (0 Bft) 100,00 %
18.07.2018 02:54 15,4 C 13,9 C 13,9 C 81 % 1015,9 hPa 0,0 l/m 0 min 0 min 0 W/m 0,0 km/h (0 Bft) 97,87 %
18.07.2018 02:56 15,4 C 13,9 C 13,9 C 81 % 1015,9 hPa 0,0 l/m 0 min 0 min 0 W/m 0,0 km/h (0 Bft) 100,00 %
18.07.2018 02:58 15,3 C 13,9 C 13,9 C 82 % 1015,9 hPa 0,0 l/m 0 min 0 min 0 W/m 0,0 km/h (0 Bft) 97,87 %
18.07.2018 03:00 15,3 C 13,9 C 13,9 C 82 % 1016,0 hPa 0,0 l/m 0 min 0 min 0 W/m 0,0 km/h (0 Bft) 97,87 %
18.07.2018 03:02 15,3 C 13,9 C 13,9 C 82 % 1016,0 hPa 0,0 l/m 0 min 0 min 0 W/m 0,0 km/h (0 Bft) 100,00 %
18.07.2018 03:04 15,3 C 13,9 C 13,9 C 82 % 1016,0 hPa 0,0 l/m 0 min 0 min 0 W/m 0,0 km/h (0 Bft) 97,87 %
18.07.2018 03:06 15,2 C 13,9 C 13,9 C 82 % 1015,9 hPa 0,0 l/m 0 min 0 min 0 W/m 0,0 km/h (0 Bft) 98,15 %
18.07.2018 03:08 15,2 C 13,9 C 13,9 C 82 % 1016,0 hPa 0,0 l/m 0 min 0 min 0 W/m 0,0 km/h (0 Bft) 95,74 %
18.07.2018 03:10 15,2 C 13,3 C 13,9 C 82 % 1015,9 hPa 0,0 l/m 0 min 0 min 0 W/m 0,0 km/h (0 Bft) 97,87 %
18.07.2018 03:12 15,1 C 13,3 C 13,9 C 82 % 1016,0 hPa 0,0 l/m 0 min 0 min 0 W/m 0,0 km/h (0 Bft) 97,87 %
18.07.2018 03:14 15,1 C 13,3 C 13,9 C 82 % 1016,0 hPa 0,0 l/m 0 min 0 min 0 W/m 0,0 km/h (0 Bft) 97,83 %
18.07.2018 03:16 15,1 C 13,3 C 13,9 C 83 % 1016,1 hPa 0,0 l/m 0 min 0 min 0 W/m 0,0 km/h (0 Bft) 97,87 %
18.07.2018 03:18 15,1 C 13,3 C 13,9 C 83 % 1016,1 hPa 0,0 l/m 0 min 0 min 0 W/m 0,0 km/h (0 Bft) 95,74 %
18.07.2018 03:20 15,0 C 13,3 C 13,9 C 83 % 1016,0 hPa 0,0 l/m 0 min 0 min 0 W/m 0,0 km/h (0 Bft) 97,87 %
18.07.2018 03:22 15,0 C 13,3 C 13,9 C 83 % 1016,0 hPa 0,0 l/m 0 min 0 min 0 W/m 0,0 km/h (0 Bft) 97,87 %
18.07.2018 03:24 14,9 C 13,3 C 13,9 C 83 % 1016,0 hPa 0,0 l/m 0 min 0 min 0 W/m 0,0 km/h (0 Bft) 97,87 %
18.07.2018 03:26 14,9 C 13,3 C 13,9 C 83 % 1016,1 hPa 0,0 l/m 0 min 0 min 0 W/m 0,0 km/h (0 Bft) 95,65 %
18.07.2018 03:28 14,9 C 13,3 C 13,3 C 83 % 1016,0 hPa 0,0 l/m 0 min 0 min 0 W/m 0,0 km/h (0 Bft) 95,74 %
18.07.2018 03:30 14,9 C 13,3 C 13,3 C 83 % 1016,1 hPa 0,0 l/m 0 min 0 min 0 W/m 0,0 km/h (0 Bft) 97,87 %
18.07.2018 03:32 14,8 C 13,3 C 13,3 C 83 % 1016,1 hPa 0,0 l/m 0 min 0 min 0 W/m 0,0 km/h (0 Bft) 97,87 %
18.07.2018 03:34 14,8 C 13,3 C 13,3 C 83 % 1016,0 hPa 0,0 l/m 0 min 0 min 0 W/m 0,0 km/h (0 Bft) 97,87 %
18.07.2018 03:36 14,8 C 13,3 C 13,3 C 83 % 1016,0 hPa 0,0 l/m 0 min 0 min 0 W/m 0,0 km/h (0 Bft) 97,83 %
18.07.2018 03:38 14,7 C 13,3 C 13,3 C 83 % 1016,0 hPa 0,0 l/m 0 min 0 min 0 W/m 0,0 km/h (0 Bft) 97,87 %
18.07.2018 03:40 14,7 C 13,3 C 13,3 C 84 % 1016,0 hPa 0,0 l/m 0 min 0 min 0 W/m 0,0 km/h (0 Bft) 95,74 %
18.07.2018 03:42 14,7 C 13,3 C 13,3 C 84 % 1016,1 hPa 0,0 l/m 0 min 0 min 0 W/m 0,0 km/h (0 Bft) 100,00 %
18.07.2018 03:44 14,7 C 13,3 C 13,9 C 84 % 1016,0 hPa 0,0 l/m 0 min 0 min 0 W/m 0,0 km/h (0 Bft) 100,00 %
18.07.2018 03:46 14,6 C 13,3 C 13,3 C 84 % 1016,0 hPa 0,0 l/m 0 min 0 min 0 W/m 0,0 km/h (0 Bft) 100,00 %
18.07.2018 03:48 14,6 C 13,3 C 13,3 C 84 % 1016,0 hPa 0,0 l/m 0 min 0 min 0 W/m 0,0 km/h (0 Bft) 100,00 %
18.07.2018 03:50 14,6 C 13,3 C 13,3 C 84 % 1015,9 hPa 0,0 l/m 0 min 0 min 0 W/m 0,0 km/h (0 Bft) 97,83 %
18.07.2018 03:52 14,5 C 13,3 C 13,3 C 84 % 1016,2 hPa 0,0 l/m 0 min 0 min 0 W/m 4,5 km/h (1 Bft) 100,00 %
18.07.2018 03:54 14,5 C 13,3 C 13,9 C 84 % 1016,0 hPa 0,0 l/m 0 min 0 min 0 W/m 2,3 km/h (1 Bft) 100,00 %
18.07.2018 03:56 14,5 C 12,8 C 13,3 C 84 % 1015,9 hPa 0,0 l/m 0 min 0 min 0 W/m 0,0 km/h (0 Bft) 100,00 %
18.07.2018 03:58 14,4 C 13,3 C 13,3 C 84 % 1015,9 hPa 0,0 l/m 0 min 0 min 0 W/m 0,0 km/h (0 Bft) 100,00 %
18.07.2018 04:00 14,4 C 13,3 C 13,3 C 84 % 1015,9 hPa 0,0 l/m 0 min 0 min 0 W/m 0,0 km/h (0 Bft) 100,00 %
18.07.2018 04:02 14,4 C 12,8 C 13,3 C 84 % 1015,9 hPa 0,0 l/m 0 min 0 min 0 W/m 0,0 km/h (0 Bft) 100,00 %
18.07.2018 04:04 14,3 C 12,8 C 13,3 C 84 % 1015,9 hPa 0,0 l/m 0 min 0 min 0 W/m 0,0 km/h (0 Bft) 97,87 %
18.07.2018 04:06 14,3 C 12,8 C 13,3 C 84 % 1015,9 hPa 0,0 l/m 0 min 0 min 0 W/m 0,0 km/h (0 Bft) 95,74 %
18.07.2018 04:08 14,3 C 12,8 C 13,3 C 85 % 1016,0 hPa 0,0 l/m 0 min 0 min 0 W/m 0,0 km/h (0 Bft) 100,00 %
18.07.2018 04:10 14,3 C 12,8 C 13,3 C 84 % 1016,1 hPa 0,0 l/m 0 min 0 min 0 W/m 0,0 km/h (0 Bft) 100,00 %
18.07.2018 04:12 14,2 C 12,8 C 13,3 C 84 % 1016,0 hPa 0,0 l/m 0 min 0 min 0 W/m 0,0 km/h (0 Bft) 100,00 %
18.07.2018 04:14 14,2 C 12,8 C 13,3 C 84 % 1016,1 hPa 0,0 l/m 0 min 0 min 0 W/m 0,0 km/h (0 Bft) 97,87 %
18.07.2018 04:16 14,2 C 12,8 C 13,3 C 84 % 1016,0 hPa 0,0 l/m 0 min 0 min 0 W/m 0,0 km/h (0 Bft) 100,00 %
18.07.2018 04:18 14,2 C 12,8 C 13,3 C 84 % 1016,0 hPa 0,0 l/m 0 min 0 min 0 W/m 0,0 km/h (0 Bft) 100,00 %
18.07.2018 04:20 14,2 C 13,3 C 13,3 C 85 % 1016,1 hPa 0,0 l/m 0 min 0 min 0 W/m 0,0 km/h (0 Bft) 100,00 %
18.07.2018 04:22 14,2 C 13,3 C 13,3 C 85 % 1016,1 hPa 0,0 l/m 0 min 0 min 0 W/m 0,0 km/h (0 Bft) 100,00 %
18.07.2018 04:24 14,2 C 13,3 C 13,3 C 85 % 1016,1 hPa 0,0 l/m 0 min 0 min 0 W/m 0,0 km/h (0 Bft) 100,00 %
18.07.2018 04:26 14,2 C 12,8 C 13,3 C 85 % 1016,1 hPa 0,0 l/m 0 min 0 min 0 W/m 0,0 km/h (0 Bft) 95,74 %
18.07.2018 04:28 14,2 C 12,8 C 13,3 C 85 % 1016,1 hPa 0,0 l/m 0 min 0 min 0 W/m 0,0 km/h (0 Bft) 100,00 %
18.07.2018 04:30 14,2 C 12,8 C 13,3 C 85 % 1016,1 hPa 0,0 l/m 0 min 0 min 0 W/m 0,0 km/h (0 Bft) 100,00 %
18.07.2018 04:32 14,1 C 12,8 C 12,8 C 85 % 1016,1 hPa 0,0 l/m 0 min 0 min 0 W/m 0,0 km/h (0 Bft) 100,00 %
18.07.2018 04:34 14,1 C 12,8 C 12,8 C 85 % 1016,2 hPa 0,0 l/m 0 min 0 min 0 W/m 0,0 km/h (0 Bft) 100,00 %
18.07.2018 04:36 14,1 C 12,8 C 12,8 C 85 % 1016,2 hPa 0,0 l/m 0 min 0 min 0 W/m 0,0 km/h (0 Bft) 100,00 %
18.07.2018 04:38 14,0 C 12,8 C 12,8 C 85 % 1016,2 hPa 0,0 l/m 0 min 0 min 0 W/m 0,0 km/h (0 Bft) 100,00 %
18.07.2018 04:40 14,0 C 12,8 C 12,8 C 85 % 1016,1 hPa 0,0 l/m 0 min 0 min 0 W/m 0,0 km/h (0 Bft) 100,00 %
18.07.2018 04:42 13,9 C 12,8 C 12,8 C 85 % 1016,1 hPa 0,0 l/m 0 min 0 min 0 W/m 0,0 km/h (0 Bft) 100,00 %
18.07.2018 04:44 13,9 C 12,8 C 12,8 C 85 % 1016,1 hPa 0,0 l/m 0 min 0 min 0 W/m 0,0 km/h (0 Bft) 97,87 %
18.07.2018 04:46 13,9 C 12,8 C 12,8 C 85 % 1016,1 hPa 0,0 l/m 0 min 0 min 0 W/m 0,0 km/h (0 Bft) 97,87 %
18.07.2018 04:48 13,9 C 12,8 C 12,8 C 85 % 1016,0 hPa 0,0 l/m 0 min 0 min 0 W/m 0,0 km/h (0 Bft) 97,83 %
18.07.2018 04:50 13,9 C 12,8 C 12,8 C 85 % 1016,2 hPa 0,0 l/m 0 min 0 min 0 W/m 0,0 km/h (0 Bft) 97,87 %
18.07.2018 04:52 13,9 C 12,2 C 12,8 C 85 % 1016,2 hPa 0,0 l/m 0 min 0 min 0 W/m 0,0 km/h (0 Bft) 97,87 %
18.07.2018 04:54 13,8 C 12,2 C 12,8 C 85 % 1016,2 hPa 0,0 l/m 0 min 0 min 0 W/m 0,0 km/h (0 Bft) 97,87 %
18.07.2018 04:56 13,8 C 12,2 C 12,8 C 85 % 1016,2 hPa 0,0 l/m 0 min 0 min 0 W/m 0,0 km/h (0 Bft) 97,87 %
18.07.2018 04:58 13,8 C 12,2 C 12,8 C 85 % 1016,2 hPa 0,0 l/m 0 min 0 min 0 W/m 0,0 km/h (0 Bft) 95,74 %
18.07.2018 05:00 13,8 C 12,8 C 12,8 C 85 % 1016,2 hPa 0,0 l/m 0 min 0 min 0 W/m 0,0 km/h (0 Bft) 95,65 %
18.07.2018 05:02 13,8 C 12,8 C 12,8 C 85 % 1016,2 hPa 0,0 l/m 0 min 0 min 0 W/m 0,0 km/h (0 Bft) 95,74 %
18.07.2018 05:04 13,7 C 12,8 C 12,8 C 85 % 1016,3 hPa 0,0 l/m 0 min 0 min 0 W/m 0,0 km/h (0 Bft) 97,87 %
18.07.2018 05:06 13,7 C 12,8 C 12,8 C 85 % 1016,3 hPa 0,0 l/m 0 min 0 min 0 W/m 0,0 km/h (0 Bft) 100,00 %
18.07.2018 05:08 13,7 C 12,8 C 12,8 C 85 % 1016,2 hPa 0,0 l/m 0 min 0 min 0 W/m 0,0 km/h (0 Bft) 95,74 %
18.07.2018 05:10 13,7 C 12,8 C 12,8 C 85 % 1016,2 hPa 0,0 l/m 0 min 0 min 0 W/m 0,0 km/h (0 Bft) 95,65 %
18.07.2018 05:12 13,7 C 12,8 C 12,8 C 85 % 1016,2 hPa 0,0 l/m 0 min 0 min 0 W/m 0,0 km/h (0 Bft) 95,74 %
18.07.2018 05:14 13,6 C 12,8 C 12,8 C 86 % 1016,3 hPa 0,0 l/m 0 min 0 min 0 W/m 0,0 km/h (0 Bft) 93,62 %
18.07.2018 05:16 13,6 C 12,8 C 12,8 C 86 % 1016,3 hPa 0,0 l/m 0 min 0 min 0 W/m 0,0 km/h (0 Bft) 97,87 %
18.07.2018 05:18 13,6 C 12,2 C 12,8 C 86 % 1016,3 hPa 0,0 l/m 0 min 0 min 0 W/m 0,0 km/h (0 Bft) 95,74 %
18.07.2018 05:20 13,6 C 12,2 C 12,8 C 86 % 1016,3 hPa 0,0 l/m 0 min 0 min 0 W/m 0,0 km/h (0 Bft) 93,62 %
18.07.2018 05:22 13,6 C 12,2 C 12,8 C 85 % 1016,3 hPa 0,0 l/m 0 min 0 min 0 W/m 0,0 km/h (0 Bft) 95,65 %
18.07.2018 05:24 13,5 C 12,2 C 12,8 C 85 % 1016,3 hPa 0,0 l/m 0 min 0 min 0 W/m 0,0 km/h (0 Bft) 95,74 %
18.07.2018 05:26 13,5 C 12,2 C 12,8 C 85 % 1016,4 hPa 0,0 l/m 0 min 0 min 0 W/m 0,0 km/h (0 Bft) 95,74 %
18.07.2018 05:28 13,5 C 12,2 C 12,8 C 85 % 1016,4 hPa 0,0 l/m 0 min 0 min 0 W/m 0,0 km/h (0 Bft) 95,74 %
18.07.2018 05:30 13,4 C 12,2 C 12,8 C 85 % 1016,4 hPa 0,0 l/m 0 min 0 min 0 W/m 0,0 km/h (0 Bft) 95,74 %
18.07.2018 05:32 13,4 C 12,2 C 12,8 C 85 % 1016,5 hPa 0,0 l/m 0 min 0 min 0 W/m 0,0 km/h (0 Bft) 93,75 %
18.07.2018 05:34 13,4 C 12,2 C 12,8 C 85 % 1016,4 hPa 0,0 l/m 0 min 0 min 0 W/m 0,0 km/h (0 Bft) 95,74 %
18.07.2018 05:35 13,4 C 12,2 C 12,8 C 85 % 1016,4 hPa 0,0 l/m 0 min 0 min 0 W/m 0,0 km/h (0 Bft) 98,25 %
18.07.2018 05:40 13,4 C 12,2 C 12,8 C 86 % 1016,4 hPa 0,0 l/m 0 min 0 min 4 W/m 0,0 km/h (0 Bft) 100,00 %
18.07.2018 05:42 13,4 C 12,2 C 12,2 C 86 % 1016,3 hPa 0,0 l/m 0 min 0 min 5 W/m 0,0 km/h (0 Bft) 95,74 %
18.07.2018 05:44 13,3 C 12,2 C 12,2 C 86 % 1016,3 hPa 0,0 l/m 0 min 0 min 5 W/m 0,0 km/h (0 Bft) 97,87 %
18.07.2018 05:46 13,3 C 12,2 C 12,2 C 86 % 1016,3 hPa 0,0 l/m 0 min 0 min 6 W/m 0,0 km/h (0 Bft) 97,83 %
18.07.2018 05:48 13,3 C 12,2 C 12,2 C 86 % 1016,3 hPa 0,0 l/m 0 min 0 min 7 W/m 0,0 km/h (0 Bft) 97,87 %
18.07.2018 05:50 13,3 C 12,2 C 12,2 C 86 % 1016,3 hPa 0,0 l/m 0 min 0 min 7 W/m 0,0 km/h (0 Bft) 97,87 %
18.07.2018 05:52 13,3 C 12,2 C 12,2 C 86 % 1016,3 hPa 0,0 l/m 0 min 0 min 9 W/m 0,0 km/h (0 Bft) 97,87 %
18.07.2018 05:54 13,3 C 12,2 C 12,2 C 86 % 1016,3 hPa 0,0 l/m 0 min 0 min 9 W/m 0,0 km/h (0 Bft) 95,74 %
18.07.2018 05:56 13,2 C 12,2 C 12,2 C 86 % 1016,3 hPa 0,0 l/m 0 min 0 min 9 W/m 0,0 km/h (0 Bft) 95,74 %
18.07.2018 05:58 13,2 C 12,2 C 12,2 C 86 % 1016,3 hPa 0,0 l/m 0 min 0 min 11 W/m 0,0 km/h (0 Bft) 97,83 %
18.07.2018 06:00 13,2 C 12,2 C 12,8 C 86 % 1016,3 hPa 0,0 l/m 0 min 0 min 11 W/m 0,0 km/h (0 Bft) 97,87 %
18.07.2018 06:02 13,2 C 12,2 C 12,8 C 86 % 1016,4 hPa 0,0 l/m 0 min 0 min 12 W/m 0,0 km/h (0 Bft) 98,11 %
18.07.2018 06:04 13,2 C 12,2 C 12,8 C 86 % 1016,4 hPa 0,0 l/m 0 min 0 min 12 W/m 0,0 km/h (0 Bft) 95,45 %
18.07.2018 06:08 13,2 C 12,2 C 12,8 C 86 % 1016,4 hPa 0,0 l/m 0 min 0 min 13 W/m 0,0 km/h (0 Bft) 95,74 %
18.07.2018 06:10 13,2 C 12,2 C 12,8 C 86 % 1016,4 hPa 0,0 l/m 0 min 0 min 14 W/m 0,0 km/h (0 Bft) 98,04 %
18.07.2018 06:12 13,1 C 12,2 C 12,8 C 86 % 1016,4 hPa 0,0 l/m 0 min 0 min 14 W/m 0,0 km/h (0 Bft) 97,78 %
18.07.2018 06:14 13,1 C 12,2 C 12,8 C 87 % 1016,4 hPa 0,0 l/m 0 min 0 min 15 W/m 0,0 km/h (0 Bft) 97,87 %
18.07.2018 06:16 13,1 C 12,2 C 12,8 C 87 % 1016,4 hPa 0,0 l/m 0 min 0 min 17 W/m 0,0 km/h (0 Bft) 97,87 %
18.07.2018 06:18 13,1 C 12,2 C 12,8 C 87 % 1016,4 hPa 0,0 l/m 0 min 0 min 18 W/m 0,0 km/h (0 Bft) 97,87 %
18.07.2018 06:20 13,1 C 12,2 C 12,8 C 87 % 1016,5 hPa 0,0 l/m 0 min 0 min 18 W/m 0,0 km/h (0 Bft) 97,83 %
18.07.2018 06:22 13,1 C 12,2 C 12,8 C 87 % 1016,5 hPa 0,0 l/m 0 min 0 min 19 W/m 0,0 km/h (0 Bft) 95,74 %
18.07.2018 06:24 13,1 C 12,8 C 12,8 C 87 % 1016,5 hPa 0,0 l/m 0 min 0 min 19 W/m 0,0 km/h (0 Bft) 97,87 %
18.07.2018 06:26 13,1 C 12,8 C 12,8 C 87 % 1016,5 hPa 0,0 l/m 0 min 0 min 19 W/m 0,0 km/h (0 Bft) 97,87 %
18.07.2018 06:28 13,1 C 12,8 C 12,8 C 88 % 1016,5 hPa 0,0 l/m 0 min 0 min 21 W/m 0,0 km/h (0 Bft) 97,87 %
18.07.2018 06:30 13,1 C 12,8 C 12,8 C 88 % 1016,5 hPa 0,0 l/m 0 min 0 min 21 W/m 0,0 km/h (0 Bft) 97,87 %
18.07.2018 06:32 13,1 C 12,8 C 12,8 C 88 % 1016,4 hPa 0,0 l/m 0 min 0 min 21 W/m 0,0 km/h (0 Bft) 95,65 %
18.07.2018 06:34 13,1 C 12,8 C 12,8 C 88 % 1016,5 hPa 0,0 l/m 0 min 0 min 21 W/m 0,0 km/h (0 Bft) 97,87 %
18.07.2018 06:36 13,1 C 12,8 C 12,8 C 88 % 1016,5 hPa 0,0 l/m 0 min 0 min 23 W/m 0,0 km/h (0 Bft) 97,87 %
18.07.2018 06:38 13,1 C 12,8 C 12,8 C 88 % 1016,5 hPa 0,0 l/m 0 min 0 min 23 W/m 0,0 km/h (0 Bft) 97,87 %
18.07.2018 06:40 13,1 C 12,8 C 12,8 C 88 % 1016,5 hPa 0,0 l/m 0 min 0 min 24 W/m 0,0 km/h (0 Bft) 95,74 %
18.07.2018 06:42 13,1 C 12,8 C 12,8 C 89 % 1016,5 hPa 0,0 l/m 0 min 0 min 25 W/m 0,0 km/h (0 Bft) 95,74 %
18.07.2018 06:44 13,1 C 12,8 C 12,8 C 89 % 1016,5 hPa 0,0 l/m 0 min 0 min 25 W/m 0,0 km/h (0 Bft) 97,83 %
18.07.2018 06:46 13,1 C 12,8 C 12,8 C 89 % 1016,5 hPa 0,0 l/m 0 min 0 min 25 W/m 0,0 km/h (0 Bft) 97,87 %
18.07.2018 06:48 13,1 C 13,3 C 12,8 C 89 % 1016,5 hPa 0,0 l/m 0 min 0 min 26 W/m 0,0 km/h (0 Bft) 97,87 %
18.07.2018 06:50 13,1 C 12,8 C 12,8 C 89 % 1016,5 hPa 0,0 l/m 0 min 0 min 26 W/m 0,0 km/h (0 Bft) 97,87 %
18.07.2018 06:52 13,1 C 12,8 C 12,8 C 90 % 1016,6 hPa 0,0 l/m 0 min 0 min 26 W/m 0,0 km/h (0 Bft) 97,62 %
18.07.2018 06:54 13,1 C 12,8 C 12,8 C 90 % 1016,6 hPa 0,0 l/m 0 min 0 min 28 W/m 0,0 km/h (0 Bft) 97,87 %
18.07.2018 06:56 13,1 C 13,3 C 12,8 C 90 % 1016,6 hPa 0,0 l/m 0 min 0 min 28 W/m 0,0 km/h (0 Bft) 95,74 %
18.07.2018 06:58 13,1 C 13,3 C 12,8 C 90 % 1016,5 hPa 0,0 l/m 0 min 0 min 28 W/m 0,0 km/h (0 Bft) 97,87 %
18.07.2018 07:00 13,1 C 13,3 C 12,8 C 90 % 1016,6 hPa 0,0 l/m 0 min 0 min 30 W/m 0,0 km/h (0 Bft) 97,87 %
18.07.2018 07:02 13,1 C 13,3 C 12,8 C 90 % 1016,6 hPa 0,0 l/m 0 min 0 min 30 W/m 0,0 km/h (0 Bft) 97,87 %
18.07.2018 07:04 13,1 C 13,3 C 12,8 C 90 % 1016,7 hPa 0,0 l/m 0 min 0 min 30 W/m 0,0 km/h (0 Bft) 95,65 %
18.07.2018 07:06 13,1 C 13,3 C 12,8 C 90 % 1016,5 hPa 0,0 l/m 0 min 0 min 31 W/m 0,0 km/h (0 Bft) 97,87 %
18.07.2018 07:08 13,1 C 13,3 C 12,8 C 91 % 1016,7 hPa 0,0 l/m 0 min 0 min 32 W/m 0,0 km/h (0 Bft) 93,62 %
18.07.2018 07:10 13,1 C 13,3 C 12,8 C 91 % 1016,6 hPa 0,0 l/m 0 min 0 min 32 W/m 0,0 km/h (0 Bft) 97,87 %
18.07.2018 07:12 13,1 C 13,9 C 12,8 C 91 % 1016,7 hPa 0,0 l/m 0 min 0 min 33 W/m 0,0 km/h (0 Bft) 97,87 %
18.07.2018 07:14 13,1 C 13,9 C 12,8 C 91 % 1016,7 hPa 0,0 l/m 0 min 0 min 33 W/m 0,0 km/h (0 Bft) 97,87 %
18.07.2018 07:16 13,2 C 13,9 C 12,8 C 91 % 1016,7 hPa 0,0 l/m 0 min 0 min 33 W/m 0,0 km/h (0 Bft) 97,83 %
18.07.2018 07:18 13,2 C 13,9 C 13,3 C 91 % 1016,7 hPa 0,0 l/m 0 min 0 min 33 W/m 0,0 km/h (0 Bft) 95,74 %
18.07.2018 07:20 13,2 C 13,9 C 13,3 C 91 % 1016,6 hPa 0,0 l/m 0 min 0 min 35 W/m 0,0 km/h (0 Bft) 100,00 %
18.07.2018 07:22 13,2 C 13,9 C 13,3 C 92 % 1016,6 hPa 0,0 l/m 0 min 0 min 35 W/m 0,0 km/h (0 Bft) 97,14 %
18.07.2018 07:24 13,2 C 14,4 C 13,3 C 92 % 1016,6 hPa 0,0 l/m 0 min 0 min 36 W/m 0,0 km/h (0 Bft) 100,00 %
18.07.2018 07:26 13,3 C 14,4 C 13,3 C 92 % 1016,7 hPa 0,0 l/m 0 min 0 min 37 W/m 0,0 km/h (0 Bft) 97,83 %
18.07.2018 07:28 13,3 C 14,4 C 13,3 C 92 % 1016,7 hPa 0,0 l/m 0 min 0 min 37 W/m 0,0 km/h (0 Bft) 95,74 %
18.07.2018 07:30 13,3 C 14,4 C 13,3 C 92 % 1016,7 hPa 0,0 l/m 0 min 0 min 37 W/m 0,0 km/h (0 Bft) 100,00 %
18.07.2018 07:32 13,4 C 14,4 C 13,9 C 92 % 1016,7 hPa 0,0 l/m 0 min 0 min 39 W/m 0,0 km/h (0 Bft) 95,74 %
18.07.2018 07:34 13,4 C 15,0 C 13,9 C 92 % 1016,7 hPa 0,0 l/m 0 min 0 min 39 W/m 0,0 km/h (0 Bft) 97,87 %
18.07.2018 07:36 13,4 C 15,0 C 13,9 C 92 % 1016,7 hPa 0,0 l/m 0 min 0 min 39 W/m 0,0 km/h (0 Bft) 97,87 %
18.07.2018 07:38 13,5 C 15,6 C 13,9 C 93 % 1016,6 hPa 0,0 l/m 0 min 0 min 39 W/m 0,0 km/h (0 Bft) 95,65 %
18.07.2018 07:40 13,6 C 15,6 C 13,9 C 93 % 1016,6 hPa 0,0 l/m 0 min 0 min 40 W/m 0,0 km/h (0 Bft) 97,87 %
18.07.2018 07:42 13,6 C 15,6 C 13,9 C 93 % 1016,7 hPa 0,0 l/m 0 min 0 min 40 W/m 0,0 km/h (0 Bft) 95,74 %
18.07.2018 07:44 13,7 C 15,6 C 14,4 C 93 % 1016,6 hPa 0,0 l/m 0 min 0 min 41 W/m 0,0 km/h (0 Bft) 97,87 %
18.07.2018 07:46 13,7 C 15,6 C 14,4 C 93 % 1016,7 hPa 0,0 l/m 0 min 0 min 42 W/m 0,0 km/h (0 Bft) 97,92 %
18.07.2018 07:48 13,8 C 15,6 C 14,4 C 93 % 1016,7 hPa 0,0 l/m 0 min 0 min 42 W/m 0,0 km/h (0 Bft) 97,87 %
18.07.2018 07:50 13,8 C 15,6 C 14,4 C 93 % 1016,7 hPa 0,0 l/m 0 min 0 min 44 W/m 0,0 km/h (0 Bft) 97,83 %
18.07.2018 07:52 13,9 C 15,6 C 14,4 C 93 % 1016,7 hPa 0,0 l/m 0 min 0 min 44 W/m 0,0 km/h (0 Bft) 98,00 %
18.07.2018 07:54 13,9 C 15,6 C 14,4 C 93 % 1016,7 hPa 0,0 l/m 0 min 0 min 44 W/m 0,0 km/h (0 Bft) 95,74 %
18.07.2018 07:56 14,0 C 16,1 C 15,0 C 93 % 1016,7 hPa 0,0 l/m 0 min 0 min 45 W/m 0,0 km/h (0 Bft) 95,74 %
18.07.2018 07:58 14,1 C 16,1 C 15,0 C 93 % 1016,7 hPa 0,0 l/m 0 min 0 min 46 W/m 0,0 km/h (0 Bft) 95,74 %
18.07.2018 08:00 14,2 C 16,1 C 15,0 C 93 % 1016,7 hPa 0,0 l/m 0 min 0 min 46 W/m 0,0 km/h (0 Bft) 95,74 %
18.07.2018 08:02 14,2 C 16,1 C 15,0 C 93 % 1016,8 hPa 0,0 l/m 0 min 0 min 46 W/m 0,0 km/h (0 Bft) 93,62 %
18.07.2018 08:04 14,2 C 16,7 C 15,0 C 93 % 1016,8 hPa 0,0 l/m 0 min 0 min 47 W/m 0,0 km/h (0 Bft) 95,74 %
18.07.2018 08:06 14,2 C 16,7 C 15,6 C 93 % 1016,8 hPa 0,0 l/m 0 min 0 min 47 W/m 0,0 km/h (0 Bft) 95,65 %
18.07.2018 08:08 14,3 C 16,7 C 15,6 C 93 % 1016,8 hPa 0,0 l/m 0 min 0 min 49 W/m 0,0 km/h (0 Bft) 95,74 %
18.07.2018 08:10 14,4 C 16,7 C 15,6 C 93 % 1016,8 hPa 0,0 l/m 0 min 0 min 49 W/m 0,0 km/h (0 Bft) 97,87 %
18.07.2018 08:12 14,5 C 17,2 C 16,1 C 93 % 1016,9 hPa 0,0 l/m 0 min 0 min 51 W/m 0,0 km/h (0 Bft) 97,87 %
18.07.2018 08:14 14,6 C 17,2 C 16,1 C 93 % 1016,8 hPa 0,0 l/m 0 min 0 min 52 W/m 4,5 km/h (1 Bft) 97,87 %
18.07.2018 08:16 14,7 C 17,2 C 16,1 C 93 % 1016,9 hPa 0,0 l/m 0 min 0 min 53 W/m 2,3 km/h (1 Bft) 97,83 %
18.07.2018 08:18 14,8 C 17,2 C 16,1 C 92 % 1016,8 hPa 0,0 l/m 0 min 0 min 54 W/m 2,3 km/h (1 Bft) 97,87 %
18.07.2018 08:20 14,8 C 17,2 C 16,1 C 92 % 1016,8 hPa 0,0 l/m 0 min 0 min 56 W/m 2,3 km/h (1 Bft) 97,87 %
18.07.2018 08:22 14,9 C 17,2 C 16,1 C 92 % 1016,9 hPa 0,0 l/m 0 min 0 min 88 W/m 0,0 km/h (0 Bft) 98,11 %
18.07.2018 08:24 15,0 C 17,2 C 16,1 C 91 % 1016,9 hPa 0,0 l/m 2 min 0 min 230 W/m 2,3 km/h (1 Bft) 97,37 %
18.07.2018 08:26 15,1 C 17,2 C 16,1 C 91 % 1016,9 hPa 0,0 l/m 2 min 0 min 275 W/m 2,3 km/h (1 Bft) 97,87 %
18.07.2018 08:28 15,2 C 17,2 C 16,1 C 90 % 1016,9 hPa 0,0 l/m 0 min 0 min 161 W/m 2,3 km/h (1 Bft) 95,74 %
18.07.2018 08:30 15,2 C 17,8 C 16,1 C 90 % 1016,9 hPa 0,0 l/m 0 min 0 min 134 W/m 0,0 km/h (0 Bft) 97,87 %
18.07.2018 08:32 15,3 C 17,8 C 16,1 C 89 % 1016,9 hPa 0,0 l/m 0 min 0 min 99 W/m 2,3 km/h (1 Bft) 97,87 %
18.07.2018 08:34 15,4 C 17,8 C 16,7 C 89 % 1016,9 hPa 0,0 l/m 2 min 0 min 274 W/m 2,3 km/h (1 Bft) 97,87 %
18.07.2018 08:36 15,5 C 17,8 C 16,7 C 88 % 1016,9 hPa 0,0 l/m 2 min 0 min 318 W/m 2,3 km/h (1 Bft) 97,83 %
18.07.2018 08:38 15,6 C 18,3 C 16,7 C 88 % 1016,9 hPa 0,0 l/m 2 min 0 min 329 W/m 4,5 km/h (1 Bft) 97,87 %
18.07.2018 08:40 15,7 C 18,3 C 16,7 C 88 % 1016,9 hPa 0,0 l/m 2 min 0 min 337 W/m 4,5 km/h (1 Bft) 97,87 %
18.07.2018 08:42 15,8 C 18,3 C 16,7 C 87 % 1016,9 hPa 0,0 l/m 2 min 0 min 342 W/m 4,5 km/h (1 Bft) 100,00 %
18.07.2018 08:44 15,9 C 18,3 C 16,7 C 86 % 1016,8 hPa 0,0 l/m 2 min 0 min 342 W/m 4,5 km/h (1 Bft) 97,87 %
18.07.2018 08:46 16,1 C 18,9 C 16,7 C 85 % 1016,9 hPa 0,0 l/m 2 min 0 min 343 W/m 2,3 km/h (1 Bft) 100,00 %
18.07.2018 08:48 16,1 C 18,9 C 16,7 C 85 % 1016,9 hPa 0,0 l/m 2 min 0 min 343 W/m 4,5 km/h (1 Bft) 100,00 %
18.07.2018 08:50 16,2 C 18,9 C 16,7 C 85 % 1016,9 hPa 0,0 l/m 2 min 0 min 329 W/m 4,5 km/h (1 Bft) 100,00 %
18.07.2018 08:52 16,3 C 18,9 C 16,7 C 83 % 1016,9 hPa 0,0 l/m 2 min 0 min 362 W/m 4,5 km/h (1 Bft) 97,92 %
18.07.2018 08:54 16,4 C 18,9 C 17,2 C 83 % 1017,0 hPa 0,0 l/m 2 min 0 min 376 W/m 9,0 km/h (2 Bft) 97,92 %
18.07.2018 08:56 16,6 C 18,9 C 17,2 C 81 % 1017,0 hPa 0,0 l/m 2 min 0 min 384 W/m 6,8 km/h (2 Bft) 100,00 %
18.07.2018 08:58 16,7 C 19,4 C 17,2 C 81 % 1017,0 hPa 0,0 l/m 2 min 0 min 392 W/m 2,3 km/h (1 Bft) 100,00 %
18.07.2018 09:00 16,8 C 19,4 C 17,2 C 80 % 1017,0 hPa 0,0 l/m 2 min 0 min 394 W/m 2,3 km/h (1 Bft) 100,00 %
18.07.2018 09:02 16,9 C 19,4 C 17,2 C 80 % 1017,0 hPa 0,0 l/m 2 min 0 min 399 W/m 6,8 km/h (2 Bft) 97,87 %
18.07.2018 09:04 17,1 C 19,4 C 17,2 C 79 % 1017,1 hPa 0,0 l/m 2 min 0 min 404 W/m 4,5 km/h (1 Bft) 100,00 %
18.07.2018 09:06 17,2 C 19,4 C 17,2 C 78 % 1017,0 hPa 0,0 l/m 2 min 0 min 411 W/m 4,5 km/h (1 Bft) 100,00 %
18.07.2018 09:08 17,3 C 19,4 C 17,2 C 77 % 1017,1 hPa 0,0 l/m 2 min 0 min 417 W/m 9,0 km/h (2 Bft) 100,00 %
18.07.2018 09:10 17,5 C 19,4 C 17,8 C 77 % 1017,0 hPa 0,0 l/m 2 min 0 min 413 W/m 6,8 km/h (2 Bft) 100,00 %
18.07.2018 09:12 17,6 C 19,4 C 17,8 C 76 % 1017,1 hPa 0,0 l/m 2 min 0 min 400 W/m 6,8 km/h (2 Bft) 100,00 %
18.07.2018 09:14 17,7 C 19,4 C 17,8 C 74 % 1017,1 hPa 0,0 l/m 2 min 0 min 393 W/m 4,5 km/h (1 Bft) 100,00 %
18.07.2018 09:16 17,8 C 20,0 C 17,8 C 74 % 1017,1 hPa 0,0 l/m 2 min 0 min 395 W/m 4,5 km/h (1 Bft) 100,00 %
18.07.2018 09:18 17,9 C 20,6 C 17,8 C 74 % 1017,0 hPa 0,0 l/m 2 min 0 min 386 W/m 2,3 km/h (1 Bft) 97,87 %
18.07.2018 09:20 18,0 C 20,0 C 17,8 C 75 % 1017,1 hPa 0,0 l/m 2 min 0 min 424 W/m 6,8 km/h (2 Bft) 100,00 %
18.07.2018 09:22 18,1 C 20,0 C 17,8 C 74 % 1017,0 hPa 0,0 l/m 2 min 0 min 452 W/m 4,5 km/h (1 Bft) 100,00 %
18.07.2018 09:24 18,2 C 20,0 C 17,8 C 74 % 1017,0 hPa 0,0 l/m 2 min 0 min 445 W/m 9,0 km/h (2 Bft) 100,00 %
18.07.2018 09:26 18,3 C 20,0 C 17,8 C 73 % 1016,9 hPa 0,0 l/m 2 min 0 min 453 W/m 9,0 km/h (2 Bft) 97,83 %
18.07.2018 09:28 18,4 C 20,0 C 17,8 C 72 % 1016,9 hPa 0,0 l/m 2 min 0 min 468 W/m 4,5 km/h (1 Bft) 100,00 %
18.07.2018 09:30 18,5 C 20,0 C 17,8 C 72 % 1017,0 hPa 0,0 l/m 2 min 0 min 465 W/m 4,5 km/h (1 Bft) 100,00 %
18.07.2018 09:32 18,6 C 20,0 C 17,8 C 72 % 1017,0 hPa 0,0 l/m 2 min 0 min 472 W/m 6,8 km/h (2 Bft) 97,87 %
18.07.2018 09:34 18,7 C 20,6 C 17,8 C 71 % 1017,1 hPa 0,0 l/m 2 min 0 min 481 W/m 4,5 km/h (1 Bft) 100,00 %
18.07.2018 09:36 18,7 C 20,6 C 17,8 C 69 % 1017,1 hPa 0,0 l/m 2 min 0 min 486 W/m 6,8 km/h (2 Bft) 100,00 %
18.07.2018 09:38 18,8 C 20,6 C 17,8 C 68 % 1017,1 hPa 0,0 l/m 2 min 0 min 491 W/m 4,5 km/h (1 Bft) 100,00 %
18.07.2018 09:40 18,9 C 20,6 C 18,3 C 68 % 1017,1 hPa 0,0 l/m 2 min 0 min 497 W/m 4,5 km/h (1 Bft) 100,00 %
18.07.2018 09:42 19,0 C 20,6 C 18,3 C 69 % 1017,1 hPa 0,0 l/m 2 min 0 min 503 W/m 4,5 km/h (1 Bft) 97,87 %
18.07.2018 09:44 19,1 C 20,6 C 18,3 C 70 % 1017,1 hPa 0,0 l/m 2 min 0 min 506 W/m 6,8 km/h (2 Bft) 97,87 %
18.07.2018 09:46 19,2 C 20,6 C 18,3 C 70 % 1017,1 hPa 0,0 l/m 2 min 0 min 513 W/m 4,5 km/h (1 Bft) 97,83 %
18.07.2018 09:48 19,3 C 20,6 C 18,9 C 68 % 1017,1 hPa 0,0 l/m 2 min 0 min 517 W/m 9,0 km/h (2 Bft) 95,92 %
18.07.2018 09:50 19,3 C 20,6 C 18,9 C 69 % 1017,1 hPa 0,0 l/m 2 min 0 min 517 W/m 4,5 km/h (1 Bft) 97,83 %
18.07.2018 09:52 19,4 C 21,1 C 18,9 C 68 % 1017,0 hPa 0,0 l/m 2 min 0 min 517 W/m 4,5 km/h (1 Bft) 95,74 %
18.07.2018 09:54 19,5 C 21,1 C 18,9 C 69 % 1017,0 hPa 0,0 l/m 2 min 0 min 516 W/m 6,8 km/h (2 Bft) 95,74 %
18.07.2018 09:56 19,6 C 21,1 C 18,9 C 69 % 1017,0 hPa 0,0 l/m 2 min 0 min 531 W/m 4,5 km/h (1 Bft) 97,87 %
18.07.2018 09:58 19,7 C 21,1 C 18,9 C 69 % 1017,1 hPa 0,0 l/m 2 min 0 min 540 W/m 6,8 km/h (2 Bft) 95,74 %
18.07.2018 10:00 19,8 C 21,1 C 18,9 C 69 % 1017,1 hPa 0,0 l/m 2 min 0 min 547 W/m 6,8 km/h (2 Bft) 97,87 %
18.07.2018 10:02 19,8 C 21,1 C 18,9 C 68 % 1017,1 hPa 0,0 l/m 2 min 0 min 553 W/m 4,5 km/h (1 Bft) 95,65 %
18.07.2018 10:04 19,9 C 21,7 C 19,4 C 68 % 1017,1 hPa 0,0 l/m 2 min 0 min 562 W/m 6,8 km/h (2 Bft) 95,74 %
18.07.2018 10:06 20,0 C 21,7 C 19,4 C 67 % 1017,0 hPa 0,0 l/m 2 min 0 min 570 W/m 6,8 km/h (2 Bft) 97,87 %
18.07.2018 10:08 20,1 C 21,7 C 19,4 C 67 % 1017,1 hPa 0,0 l/m 2 min 0 min 577 W/m 9,0 km/h (2 Bft) 97,87 %
18.07.2018 10:10 20,1 C 22,8 C 18,9 C 65 % 1017,1 hPa 0,0 l/m 2 min 0 min 574 W/m 4,5 km/h (1 Bft) 95,74 %
18.07.2018 10:12 20,2 C 23,9 C 18,9 C 66 % 1017,1 hPa 0,0 l/m 2 min 0 min 568 W/m 4,5 km/h (1 Bft) 95,65 %
18.07.2018 10:14 20,3 C 23,9 C 18,9 C 65 % 1017,1 hPa 0,0 l/m 2 min 0 min 566 W/m 4,5 km/h (1 Bft) 95,74 %
18.07.2018 10:16 20,3 C 23,3 C 19,4 C 65 % 1017,0 hPa 0,0 l/m 2 min 0 min 578 W/m 4,5 km/h (1 Bft) 95,74 %
18.07.2018 10:18 20,4 C 22,8 C 19,4 C 64 % 1017,1 hPa 0,0 l/m 2 min 0 min 583 W/m 6,8 km/h (2 Bft) 95,74 %
18.07.2018 10:20 20,4 C 22,2 C 19,4 C 64 % 1017,0 hPa 0,0 l/m 2 min 0 min 594 W/m 6,8 km/h (2 Bft) 95,74 %
18.07.2018 10:22 20,5 C 22,2 C 19,4 C 63 % 1017,0 hPa 0,0 l/m 2 min 0 min 602 W/m 6,8 km/h (2 Bft) 91,49 %
18.07.2018 10:24 20,6 C 22,8 C 19,4 C 64 % 1017,0 hPa 0,0 l/m 2 min 0 min 611 W/m 4,5 km/h (1 Bft) 95,65 %
18.07.2018 10:26 20,7 C 23,3 C 19,4 C 64 % 1017,0 hPa 0,0 l/m 2 min 0 min 608 W/m 4,5 km/h (1 Bft) 93,62 %
18.07.2018 10:28 20,7 C 22,8 C 19,4 C 63 % 1017,0 hPa 0,0 l/m 2 min 0 min 605 W/m 9,0 km/h (2 Bft) 93,62 %
18.07.2018 10:30 20,8 C 22,8 C 20,0 C 62 % 1017,0 hPa 0,0 l/m 2 min 0 min 611 W/m 11,3 km/h (2 Bft) 93,62 %
18.07.2018 10:32 20,9 C 22,8 C 20,0 C 62 % 1017,0 hPa 0,0 l/m 2 min 0 min 606 W/m 6,8 km/h (2 Bft) 95,83 %
18.07.2018 10:34 21,0 C 22,8 C 19,4 C 62 % 1016,9 hPa 0,0 l/m 2 min 0 min 606 W/m 6,8 km/h (2 Bft) 93,62 %
18.07.2018 10:36 21,1 C 22,8 C 20,0 C 62 % 1016,9 hPa 0,0 l/m 2 min 0 min 616 W/m 11,3 km/h (2 Bft) 95,65 %
18.07.2018 10:38 21,1 C 22,8 C 20,0 C 61 % 1016,9 hPa 0,0 l/m 2 min 0 min 614 W/m 6,8 km/h (2 Bft) 95,74 %
18.07.2018 10:40 21,2 C 23,3 C 20,0 C 62 % 1016,9 hPa 0,0 l/m 2 min 0 min 613 W/m 6,8 km/h (2 Bft) 95,74 %
18.07.2018 10:42 21,3 C 23,9 C 19,4 C 62 % 1016,9 hPa 0,0 l/m 2 min 0 min 627 W/m 6,8 km/h (2 Bft) 91,49 %
18.07.2018 10:44 21,3 C 23,9 C 19,4 C 62 % 1016,9 hPa 0,0 l/m 2 min 0 min 633 W/m 6,8 km/h (2 Bft) 93,62 %
18.07.2018 10:46 21,4 C 25,6 C 19,4 C 61 % 1016,8 hPa 0,0 l/m 2 min 0 min 635 W/m 4,5 km/h (1 Bft) 95,83 %
18.07.2018 10:48 21,4 C 26,7 C 19,4 C 61 % 1016,8 hPa 0,0 l/m 2 min 0 min 647 W/m 4,5 km/h (1 Bft) 95,65 %
18.07.2018 10:50 21,5 C 26,1 C 19,4 C 60 % 1016,8 hPa 0,0 l/m 2 min 0 min 642 W/m 6,8 km/h (2 Bft) 95,74 %
18.07.2018 10:52 21,6 C 27,2 C 20,0 C 62 % 1016,8 hPa 0,0 l/m 2 min 0 min 635 W/m 6,8 km/h (2 Bft) 91,43 %
18.07.2018 10:54 21,7 C 26,7 C 20,0 C 60 % 1016,9 hPa 0,0 l/m 2 min 0 min 623 W/m 6,8 km/h (2 Bft) 93,62 %
18.07.2018 10:56 21,8 C 28,3 C 20,0 C 61 % 1016,9 hPa 0,0 l/m 2 min 0 min 638 W/m 4,5 km/h (1 Bft) 93,62 %
18.07.2018 10:58 21,9 C 28,9 C 20,0 C 60 % 1016,9 hPa 0,0 l/m 2 min 0 min 653 W/m 9,0 km/h (2 Bft) 95,74 %
18.07.2018 11:00 22,0 C 30,0 C 20,0 C 60 % 1016,9 hPa 0,0 l/m 2 min 0 min 659 W/m 4,5 km/h (1 Bft) 91,49 %
18.07.2018 11:02 22,1 C 30,6 C 20,6 C 60 % 1016,9 hPa 0,0 l/m 2 min 0 min 666 W/m 4,5 km/h (1 Bft) 95,74 %
18.07.2018 11:04 22,2 C 29,4 C 20,6 C 58 % 1016,9 hPa 0,0 l/m 2 min 0 min 671 W/m 6,8 km/h (2 Bft) 95,65 %
18.07.2018 11:06 22,3 C 30,0 C 20,6 C 59 % 1016,8 hPa 0,0 l/m 2 min 0 min 664 W/m 4,5 km/h (1 Bft) 93,62 %
18.07.2018 11:08 22,5 C 31,1 C 20,6 C 58 % 1016,8 hPa 0,0 l/m 2 min 0 min 652 W/m 9,0 km/h (2 Bft) 93,62 %
18.07.2018 11:10 22,6 C 32,2 C 20,6 C 59 % 1016,8 hPa 0,0 l/m 2 min 0 min 663 W/m 9,0 km/h (2 Bft) 97,87 %
18.07.2018 11:12 22,7 C 31,7 C 20,6 C 58 % 1016,8 hPa 0,0 l/m 2 min 0 min 682 W/m 6,8 km/h (2 Bft) 97,87 %
18.07.2018 11:14 22,8 C 30,0 C 20,6 C 57 % 1016,8 hPa 0,0 l/m 2 min 0 min 689 W/m 11,3 km/h (2 Bft) 100,00 %
18.07.2018 11:16 23,0 C 31,1 C 21,1 C 57 % 1016,8 hPa 0,0 l/m 2 min 0 min 692 W/m 4,5 km/h (1 Bft) 97,87 %
18.07.2018 11:18 23,2 C 30,6 C 21,1 C 56 % 1016,8 hPa 0,0 l/m 2 min 0 min 689 W/m 11,3 km/h (2 Bft) 97,87 %
18.07.2018 11:20 23,3 C 31,1 C 21,1 C 57 % 1016,8 hPa 0,0 l/m 2 min 0 min 708 W/m 11,3 km/h (2 Bft) 100,00 %
18.07.2018 11:22 23,5 C 31,7 C 21,1 C 57 % 1016,8 hPa 0,0 l/m 2 min 0 min 722 W/m 4,5 km/h (1 Bft) 100,00 %
18.07.2018 11:24 23,7 C 30,6 C 21,1 C 54 % 1016,7 hPa 0,0 l/m 2 min 0 min 749 W/m 9,0 km/h (2 Bft) 100,00 %
18.07.2018 11:26 23,8 C 32,2 C 21,1 C 55 % 1016,7 hPa 0,0 l/m 2 min 0 min 760 W/m 4,5 km/h (1 Bft) 100,00 %
18.07.2018 11:28 23,9 C 33,3 C 21,1 C 56 % 1016,8 hPa 0,0 l/m 2 min 0 min 779 W/m 6,8 km/h (2 Bft) 100,00 %
18.07.2018 11:30 24,1 C 33,9 C 21,1 C 58 % 1016,8 hPa 0,0 l/m 2 min 0 min 787 W/m 9,0 km/h (2 Bft) 100,00 %
18.07.2018 11:32 24,3 C 32,2 C 21,1 C 54 % 1016,8 hPa 0,0 l/m 2 min 0 min 785 W/m 9,0 km/h (2 Bft) 100,00 %
18.07.2018 11:34 24,4 C 30,6 C 21,1 C 54 % 1016,8 hPa 0,0 l/m 2 min 0 min 780 W/m 6,8 km/h (2 Bft) 100,00 %
18.07.2018 11:36 24,5 C 30,0 C 21,1 C 52 % 1016,8 hPa 0,0 l/m 2 min 0 min 790 W/m 6,8 km/h (2 Bft) 100,00 %
18.07.2018 11:38 24,7 C 31,1 C 21,1 C 56 % 1016,8 hPa 0,0 l/m 2 min 0 min 805 W/m 6,8 km/h (2 Bft) 100,00 %
18.07.2018 11:40 24,8 C 32,8 C 21,1 C 55 % 1016,7 hPa 0,0 l/m 2 min 0 min 818 W/m 9,0 km/h (2 Bft) 100,00 %
18.07.2018 11:42 25,0 C 33,9 C 21,1 C 55 % 1016,7 hPa 0,0 l/m 2 min 0 min 800 W/m 9,0 km/h (2 Bft) 100,00 %
18.07.2018 11:44 25,1 C 34,4 C 21,7 C 54 % 1016,8 hPa 0,0 l/m 2 min 0 min 862 W/m 4,5 km/h (1 Bft) 100,00 %
18.07.2018 11:46 25,2 C 32,8 C 21,7 C 52 % 1016,7 hPa 0,0 l/m 2 min 0 min 864 W/m 13,5 km/h (3 Bft) 97,87 %
18.07.2018 11:48 25,3 C 31,7 C 21,7 C 52 % 1016,7 hPa 0,0 l/m 2 min 0 min 835 W/m 6,8 km/h (2 Bft) 100,00 %
18.07.2018 11:50 25,4 C 31,1 C 21,7 C 53 % 1016,7 hPa 0,0 l/m 2 min 0 min 731 W/m 4,5 km/h (1 Bft) 100,00 %
18.07.2018 11:52 25,4 C 30,0 C 21,7 C 52 % 1016,8 hPa 0,0 l/m 2 min 0 min 452 W/m 6,8 km/h (2 Bft) 100,00 %
18.07.2018 11:54 25,4 C 28,9 C 21,7 C 51 % 1016,7 hPa 0,0 l/m 0 min 0 min 278 W/m 6,8 km/h (2 Bft) 100,00 %
18.07.2018 11:56 25,4 C 30,6 C 21,7 C 52 % 1016,7 hPa 0,0 l/m 2 min 0 min 690 W/m 9,0 km/h (2 Bft) 100,00 %
18.07.2018 11:58 25,4 C 29,4 C 21,7 C 50 % 1016,7 hPa 0,0 l/m 2 min 0 min 798 W/m 6,8 km/h (2 Bft) 100,00 %
18.07.2018 12:00 25,3 C 28,3 C 21,7 C 51 % 1016,7 hPa 0,0 l/m 2 min 0 min 453 W/m 9,0 km/h (2 Bft) 100,00 %
18.07.2018 12:02 25,3 C 30,0 C 21,7 C 52 % 1016,7 hPa 0,0 l/m 2 min 0 min 482 W/m 9,0 km/h (2 Bft) 100,00 %
18.07.2018 12:04 25,2 C 28,9 C 21,1 C 51 % 1016,6 hPa 0,0 l/m 2 min 0 min 807 W/m 11,3 km/h (2 Bft) 100,00 %
18.07.2018 12:08 25,1 C 26,1 C 21,1 C 50 % 1016,7 hPa 0,0 l/m 4 min 0 min 423 W/m 9,0 km/h (2 Bft) 100,00 %
18.07.2018 12:10 25,0 C 25,0 C 21,1 C 51 % 1016,7 hPa 0,0 l/m 0 min 0 min 195 W/m 9,0 km/h (2 Bft) 100,00 %
18.07.2018 12:12 24,8 C 25,0 C 21,1 C 50 % 1016,7 hPa 0,0 l/m 0 min 0 min 219 W/m 4,5 km/h (1 Bft) 100,00 %
18.07.2018 12:14 24,7 C 26,1 C 21,1 C 51 % 1016,7 hPa 0,0 l/m 0 min 0 min 229 W/m 6,8 km/h (2 Bft) 100,00 %
18.07.2018 12:16 24,6 C 27,8 C 21,1 C 51 % 1016,6 hPa 0,0 l/m 0 min 0 min 290 W/m 6,8 km/h (2 Bft) 100,00 %
18.07.2018 12:18 24,7 C 30,0 C 21,7 C 53 % 1016,6 hPa 0,0 l/m 2 min 0 min 786 W/m 4,5 km/h (1 Bft) 100,00 %
18.07.2018 12:20 24,7 C 32,2 C 21,7 C 56 % 1016,5 hPa 0,0 l/m 2 min 0 min 791 W/m 4,5 km/h (1 Bft) 100,00 %
18.07.2018 12:22 24,8 C 32,8 C 21,7 C 53 % 1016,6 hPa 0,0 l/m 2 min 0 min 831 W/m 6,8 km/h (2 Bft) 97,37 %
18.07.2018 12:24 24,9 C 34,4 C 21,7 C 55 % 1016,6 hPa 0,0 l/m 2 min 0 min 853 W/m 4,5 km/h (1 Bft) 100,00 %
18.07.2018 12:26 25,0 C 35,0 C 22,2 C 55 % 1016,5 hPa 0,0 l/m 2 min 0 min 763 W/m 4,5 km/h (1 Bft) 100,00 %
18.07.2018 12:28 25,1 C 35,0 C 22,2 C 53 % 1016,5 hPa 0,0 l/m 2 min 0 min 777 W/m 9,0 km/h (2 Bft) 100,00 %
18.07.2018 12:30 25,2 C 35,0 C 22,8 C 54 % 1016,5 hPa 0,0 l/m 2 min 0 min 850 W/m 6,8 km/h (2 Bft) 100,00 %
18.07.2018 12:32 25,3 C 33,9 C 22,8 C 51 % 1016,4 hPa 0,0 l/m 2 min 0 min 819 W/m 6,8 km/h (2 Bft) 100,00 %
18.07.2018 12:34 25,4 C 32,2 C 22,2 C 52 % 1016,5 hPa 0,0 l/m 2 min 0 min 535 W/m 6,8 km/h (2 Bft) 100,00 %
18.07.2018 12:36 25,4 C 31,1 C 22,2 C 52 % 1016,6 hPa 0,0 l/m 2 min 0 min 507 W/m 6,8 km/h (2 Bft) 100,00 %
18.07.2018 12:38 25,5 C 31,1 C 22,2 C 51 % 1016,6 hPa 0,0 l/m 2 min 0 min 585 W/m 6,8 km/h (2 Bft) 100,00 %
18.07.2018 12:40 25,6 C 32,2 C 22,2 C 52 % 1016,5 hPa 0,0 l/m 2 min 0 min 585 W/m 9,0 km/h (2 Bft) 100,00 %
18.07.2018 12:42 25,6 C 32,2 C 22,8 C 51 % 1016,5 hPa 0,0 l/m 2 min 0 min 585 W/m 11,3 km/h (2 Bft) 100,00 %
18.07.2018 12:44 25,7 C 32,8 C 22,8 C 51 % 1016,5 hPa 0,0 l/m 2 min 0 min 884 W/m 6,8 km/h (2 Bft) 100,00 %
18.07.2018 12:46 25,7 C 32,2 C 22,8 C 50 % 1016,5 hPa 0,0 l/m 2 min 0 min 932 W/m 2,3 km/h (1 Bft) 100,00 %
18.07.2018 12:48 25,8 C 33,3 C 22,8 C 51 % 1016,5 hPa 0,0 l/m 2 min 0 min 938 W/m 6,8 km/h (2 Bft) 100,00 %
18.07.2018 12:50 25,8 C 34,4 C 22,8 C 51 % 1016,5 hPa 0,0 l/m 2 min 0 min 929 W/m 4,5 km/h (1 Bft) 97,87 %
18.07.2018 12:52 25,9 C 34,4 C 22,8 C 50 % 1016,5 hPa 0,0 l/m 2 min 0 min 901 W/m 4,5 km/h (1 Bft) 97,87 %
18.07.2018 12:54 26,0 C 32,8 C 22,8 C 50 % 1016,5 hPa 0,0 l/m 2 min 0 min 832 W/m 6,8 km/h (2 Bft) 97,87 %
18.07.2018 12:56 26,0 C 32,8 C 22,8 C 50 % 1016,5 hPa 0,0 l/m 0 min 0 min 377 W/m 6,8 km/h (2 Bft) 97,87 %
18.07.2018 12:58 26,1 C 34,4 C 22,8 C 50 % 1016,5 hPa 0,0 l/m 2 min 0 min 939 W/m 6,8 km/h (2 Bft) 97,87 %
18.07.2018 13:00 26,1 C 33,9 C 23,3 C 50 % 1016,5 hPa 0,0 l/m 2 min 0 min 908 W/m 11,3 km/h (2 Bft) 95,65 %
18.07.2018 13:02 26,2 C 32,8 C 22,8 C 49 % 1016,4 hPa 0,0 l/m 2 min 0 min 821 W/m 6,8 km/h (2 Bft) 93,75 %
18.07.2018 13:04 26,2 C 31,7 C 23,3 C 48 % 1016,4 hPa 0,0 l/m 2 min 0 min 836 W/m 9,0 km/h (2 Bft) 95,74 %
18.07.2018 13:06 26,3 C 31,1 C 23,3 C 48 % 1016,5 hPa 0,0 l/m 2 min 0 min 867 W/m 9,0 km/h (2 Bft) 93,62 %
18.07.2018 13:08 26,3 C 30,6 C 23,3 C 50 % 1016,5 hPa 0,0 l/m 2 min 0 min 833 W/m 4,5 km/h (1 Bft) 95,74 %
18.07.2018 13:10 26,4 C 31,1 C 23,3 C 50 % 1016,4 hPa 0,0 l/m 2 min 0 min 445 W/m 6,8 km/h (2 Bft) 95,74 %
18.07.2018 13:12 26,3 C 31,7 C 23,3 C 49 % 1016,4 hPa 0,0 l/m 2 min 0 min 822 W/m 6,8 km/h (2 Bft) 93,48 %
18.07.2018 13:14 26,3 C 32,2 C 23,3 C 48 % 1016,4 hPa 0,0 l/m 2 min 0 min 934 W/m 4,5 km/h (1 Bft) 93,62 %
18.07.2018 13:16 26,3 C 31,7 C 23,3 C 48 % 1016,4 hPa 0,0 l/m 2 min 0 min 959 W/m 6,8 km/h (2 Bft) 93,62 %
18.07.2018 13:18 26,3 C 31,1 C 23,3 C 47 % 1016,4 hPa 0,0 l/m 2 min 0 min 960 W/m 9,0 km/h (2 Bft) 93,62 %
18.07.2018 13:20 26,3 C 33,3 C 23,9 C 50 % 1016,4 hPa 0,0 l/m 2 min 0 min 974 W/m 6,8 km/h (2 Bft) 93,62 %
18.07.2018 13:22 26,4 C 33,9 C 23,9 C 50 % 1016,4 hPa 0,0 l/m 2 min 0 min 965 W/m 9,0 km/h (2 Bft) 95,65 %
18.07.2018 13:24 26,4 C 34,4 C 23,3 C 48 % 1016,3 hPa 0,0 l/m 2 min 0 min 956 W/m 6,8 km/h (2 Bft) 93,62 %
18.07.2018 13:26 26,4 C 33,3 C 23,3 C 48 % 1016,3 hPa 0,0 l/m 2 min 0 min 983 W/m 6,8 km/h (2 Bft) 91,49 %
18.07.2018 13:28 26,4 C 33,3 C 23,3 C 49 % 1016,2 hPa 0,0 l/m 2 min 0 min 941 W/m 9,0 km/h (2 Bft) 93,62 %
18.07.2018 13:30 26,5 C 33,9 C 23,9 C 49 % 1016,3 hPa 0,0 l/m 2 min 0 min 966 W/m 4,5 km/h (1 Bft) 93,62 %
18.07.2018 13:32 26,6 C 33,9 C 23,9 C 48 % 1016,3 hPa 0,0 l/m 2 min 0 min 976 W/m 4,5 km/h (1 Bft) 95,74 %
18.07.2018 13:34 26,6 C 33,3 C 23,9 C 47 % 1016,3 hPa 0,0 l/m 2 min 0 min 991 W/m 9,0 km/h (2 Bft) 95,74 %
18.07.2018 13:36 26,7 C 30,0 C 23,9 C 48 % 1016,3 hPa 0,0 l/m 2 min 0 min 718 W/m 11,3 km/h (2 Bft) 95,65 %
18.07.2018 13:38 26,7 C 28,9 C 23,3 C 49 % 1016,3 hPa 0,0 l/m 0 min 0 min 320 W/m 4,5 km/h (1 Bft) 93,62 %
18.07.2018 13:40 26,7 C 28,3 C 23,3 C 49 % 1016,4 hPa 0,0 l/m 2 min 0 min 420 W/m 9,0 km/h (2 Bft) 91,49 %
18.07.2018 13:42 26,7 C 28,3 C 23,9 C 50 % 1016,3 hPa 0,0 l/m 2 min 0 min 983 W/m 13,5 km/h (3 Bft) 93,62 %
18.07.2018 13:44 26,7 C 27,2 C 23,9 C 48 % 1016,4 hPa 0,0 l/m 2 min 0 min 1079 W/m 9,0 km/h (2 Bft) 91,49 %
18.07.2018 13:46 26,6 C 27,2 C 23,3 C 48 % 1016,3 hPa 0,0 l/m 2 min 0 min 564 W/m 9,0 km/h (2 Bft) 95,65 %
18.07.2018 13:48 26,6 C 26,7 C 23,3 C 49 % 1016,3 hPa 0,0 l/m 0 min 0 min 329 W/m 4,5 km/h (1 Bft) 95,74 %
18.07.2018 13:50 26,5 C 26,7 C 23,3 C 50 % 1016,3 hPa 0,0 l/m 0 min 0 min 315 W/m 4,5 km/h (1 Bft) 93,62 %
18.07.2018 13:52 26,4 C 26,7 C 23,9 C 48 % 1016,2 hPa 0,0 l/m 0 min 0 min 274 W/m 9,0 km/h (2 Bft) 98,11 %
18.07.2018 13:54 26,4 C 26,7 C 23,3 C 48 % 1016,2 hPa 0,0 l/m 2 min 0 min 904 W/m 13,5 km/h (3 Bft) 97,87 %
18.07.2018 13:56 26,4 C 27,2 C 23,9 C 49 % 1016,2 hPa 0,0 l/m 2 min 0 min 997 W/m 9,0 km/h (2 Bft) 97,87 %
18.07.2018 13:58 26,3 C 27,2 C 23,9 C 49 % 1016,1 hPa 0,0 l/m 2 min 0 min 978 W/m 11,3 km/h (2 Bft) 93,62 %
18.07.2018 14:00 26,3 C 26,7 C 23,9 C 49 % 1016,1 hPa 0,0 l/m 2 min 0 min 975 W/m 13,5 km/h (3 Bft) 97,87 %
18.07.2018 14:02 26,3 C 27,2 C 23,9 C 49 % 1016,1 hPa 0,0 l/m 2 min 0 min 967 W/m 9,0 km/h (2 Bft) 95,12 %
18.07.2018 14:04 26,3 C 27,2 C 23,9 C 50 % 1016,1 hPa 0,0 l/m 2 min 0 min 973 W/m 4,5 km/h (1 Bft) 97,87 %
18.07.2018 14:06 26,3 C 27,2 C 24,4 C 49 % 1016,1 hPa 0,0 l/m 2 min 0 min 1002 W/m 9,0 km/h (2 Bft) 97,87 %
18.07.2018 14:08 26,3 C 27,2 C 23,9 C 49 % 1016,1 hPa 0,0 l/m 2 min 0 min 1030 W/m 9,0 km/h (2 Bft) 95,74 %
18.07.2018 14:10 26,3 C 27,2 C 24,4 C 49 % 1016,1 hPa 0,0 l/m 2 min 0 min 1045 W/m 9,0 km/h (2 Bft) 97,83 %
18.07.2018 14:12 26,4 C 27,2 C 24,4 C 50 % 1016,1 hPa 0,0 l/m 2 min 0 min 1034 W/m 6,8 km/h (2 Bft) 97,87 %
18.07.2018 14:14 26,3 C 26,7 C 23,9 C 49 % 1016,1 hPa 0,0 l/m 0 min 0 min 321 W/m 13,5 km/h (3 Bft) 97,87 %
18.07.2018 14:16 26,3 C 27,2 C 23,9 C 49 % 1016,1 hPa 0,0 l/m 2 min 0 min 578 W/m 6,8 km/h (2 Bft) 91,67 %
18.07.2018 14:18 26,4 C 27,2 C 23,9 C 50 % 1016,1 hPa 0,0 l/m 2 min 0 min 1061 W/m 9,0 km/h (2 Bft) 97,87 %
18.07.2018 14:20 26,3 C 26,7 C 23,9 C 49 % 1016,0 hPa 0,0 l/m 2 min 0 min 873 W/m 11,3 km/h (2 Bft) 97,83 %
18.07.2018 14:22 26,3 C 26,1 C 23,9 C 49 % 1016,0 hPa 0,0 l/m 0 min 0 min 271 W/m 11,3 km/h (2 Bft) 97,87 %
18.07.2018 14:24 26,2 C 26,1 C 23,3 C 49 % 1016,0 hPa 0,0 l/m 0 min 0 min 336 W/m 9,0 km/h (2 Bft) 97,87 %
18.07.2018 14:26 26,2 C 26,1 C 23,3 C 48 % 1016,0 hPa 0,0 l/m 2 min 0 min 988 W/m 9,0 km/h (2 Bft) 95,74 %
18.07.2018 14:28 26,1 C 26,1 C 23,3 C 49 % 1016,0 hPa 0,0 l/m 2 min 0 min 984 W/m 9,0 km/h (2 Bft) 97,87 %
18.07.2018 14:30 26,1 C 26,1 C 23,3 C 49 % 1016,0 hPa 0,0 l/m 2 min 0 min 984 W/m 6,8 km/h (2 Bft) 97,87 %
18.07.2018 14:32 26,1 C 26,1 C 23,3 C 49 % 1016,0 hPa 0,0 l/m 2 min 0 min 984 W/m 6,8 km/h (2 Bft) 100,00 %
18.07.2018 14:34 26,0 C 26,1 C 23,9 C 48 % 1015,9 hPa 0,0 l/m 2 min 0 min 982 W/m 11,3 km/h (2 Bft) 97,87 %
18.07.2018 14:36 26,0 C 26,1 C 23,9 C 48 % 1016,0 hPa 0,0 l/m 2 min 0 min 978 W/m 13,5 km/h (3 Bft) 97,87 %
18.07.2018 14:38 26,0 C 26,1 C 23,9 C 48 % 1016,0 hPa 0,0 l/m 2 min 0 min 651 W/m 4,5 km/h (1 Bft) 100,00 %
18.07.2018 14:40 26,0 C 26,1 C 23,3 C 48 % 1016,0 hPa 0,0 l/m 0 min 0 min 370 W/m 6,8 km/h (2 Bft) 100,00 %
18.07.2018 14:42 25,9 C 26,1 C 23,3 C 49 % 1015,9 hPa 0,0 l/m 0 min 0 min 250 W/m 9,0 km/h (2 Bft) 100,00 %
18.07.2018 14:44 25,9 C 26,1 C 23,3 C 49 % 1016,0 hPa 0,0 l/m 0 min 0 min 243 W/m 6,8 km/h (2 Bft) 100,00 %
18.07.2018 14:46 25,9 C 25,6 C 23,3 C 49 % 1016,0 hPa 0,0 l/m 0 min 0 min 220 W/m 9,0 km/h (2 Bft) 100,00 %
18.07.2018 14:48 25,8 C 25,6 C 23,3 C 49 % 1016,0 hPa 0,0 l/m 0 min 0 min 270 W/m 9,0 km/h (2 Bft) 100,00 %
18.07.2018 14:50 25,8 C 25,6 C 22,8 C 49 % 1015,9 hPa 0,0 l/m 0 min 0 min 279 W/m 4,5 km/h (1 Bft) 100,00 %
18.07.2018 14:52 25,8 C 25,6 C 23,3 C 49 % 1016,0 hPa 0,0 l/m 0 min 0 min 301 W/m 6,8 km/h (2 Bft) 97,87 %
18.07.2018 14:54 25,7 C 26,1 C 23,3 C 48 % 1015,9 hPa 0,0 l/m 0 min 0 min 304 W/m 11,3 km/h (2 Bft) 98,18 %
18.07.2018 14:56 25,7 C 25,6 C 23,3 C 48 % 1015,9 hPa 0,0 l/m 0 min 0 min 304 W/m 11,3 km/h (2 Bft) 100,00 %
18.07.2018 14:58 25,7 C 26,1 C 23,3 C 48 % 1015,9 hPa 0,0 l/m 2 min 0 min 537 W/m 11,3 km/h (2 Bft) 100,00 %
18.07.2018 15:00 25,7 C 26,1 C 23,9 C 48 % 1015,9 hPa 0,0 l/m 2 min 0 min 916 W/m 9,0 km/h (2 Bft) 100,00 %
18.07.2018 15:02 25,7 C 26,7 C 24,4 C 48 % 1015,9 hPa 0,0 l/m 2 min 0 min 916 W/m 11,3 km/h (2 Bft) 96,00 %
18.07.2018 15:04 25,7 C 26,7 C 24,4 C 49 % 1015,9 hPa 0,0 l/m 2 min 0 min 936 W/m 9,0 km/h (2 Bft) 100,00 %
18.07.2018 15:06 25,8 C 26,7 C 24,4 C 49 % 1015,9 hPa 0,0 l/m 2 min 0 min 929 W/m 9,0 km/h (2 Bft) 100,00 %
18.07.2018 15:08 25,8 C 26,7 C 24,4 C 48 % 1016,0 hPa 0,0 l/m 2 min 0 min 924 W/m 6,8 km/h (2 Bft) 100,00 %
18.07.2018 15:10 25,8 C 27,2 C 23,9 C 49 % 1015,8 hPa 0,0 l/m 2 min 0 min 933 W/m 11,3 km/h (2 Bft) 100,00 %
18.07.2018 15:12 25,9 C 27,2 C 24,4 C 49 % 1015,9 hPa 0,0 l/m 2 min 0 min 948 W/m 11,3 km/h (2 Bft) 100,00 %
18.07.2018 15:14 25,9 C 27,2 C 24,4 C 49 % 1015,8 hPa 0,0 l/m 2 min 0 min 947 W/m 6,8 km/h (2 Bft) 100,00 %
18.07.2018 15:16 26,0 C 27,8 C 24,4 C 49 % 1015,8 hPa 0,0 l/m 2 min 0 min 944 W/m 6,8 km/h (2 Bft) 100,00 %
18.07.2018 15:18 26,1 C 27,8 C 24,4 C 48 % 1015,8 hPa 0,0 l/m 2 min 0 min 946 W/m 9,0 km/h (2 Bft) 100,00 %
18.07.2018 15:20 26,1 C 28,3 C 24,4 C 50 % 1015,8 hPa 0,0 l/m 2 min 0 min 968 W/m 9,0 km/h (2 Bft) 100,00 %
18.07.2018 15:22 26,2 C 27,8 C 25,0 C 47 % 1015,8 hPa 0,0 l/m 2 min 0 min 977 W/m 11,3 km/h (2 Bft) 100,00 %
18.07.2018 15:24 26,3 C 27,8 C 25,0 C 48 % 1015,7 hPa 0,0 l/m 2 min 0 min 966 W/m 11,3 km/h (2 Bft) 100,00 %
18.07.2018 15:26 26,4 C 27,8 C 25,0 C 49 % 1015,7 hPa 0,0 l/m 2 min 0 min 961 W/m 6,8 km/h (2 Bft) 100,00 %
18.07.2018 15:28 26,4 C 27,8 C 25,0 C 48 % 1015,6 hPa 0,0 l/m 2 min 0 min 953 W/m 11,3 km/h (2 Bft) 100,00 %
18.07.2018 15:30 26,6 C 27,2 C 25,0 C 46 % 1015,6 hPa 0,0 l/m 2 min 0 min 912 W/m 9,0 km/h (2 Bft) 100,00 %
18.07.2018 15:32 26,6 C 28,3 C 25,0 C 49 % 1015,7 hPa 0,0 l/m 2 min 0 min 923 W/m 6,8 km/h (2 Bft) 97,56 %
18.07.2018 15:34 26,7 C 28,3 C 25,0 C 48 % 1015,6 hPa 0,0 l/m 2 min 0 min 911 W/m 6,8 km/h (2 Bft) 97,87 %
18.07.2018 15:36 26,8 C 28,3 C 24,4 C 48 % 1015,7 hPa 0,0 l/m 2 min 0 min 931 W/m 11,3 km/h (2 Bft) 97,87 %
18.07.2018 15:38 26,8 C 27,8 C 24,4 C 48 % 1015,6 hPa 0,0 l/m 2 min 0 min 736 W/m 13,5 km/h (3 Bft) 97,87 %
18.07.2018 15:40 26,9 C 27,8 C 24,4 C 48 % 1015,6 hPa 0,0 l/m 0 min 0 min 316 W/m 6,8 km/h (2 Bft) 95,74 %
18.07.2018 15:42 26,9 C 28,3 C 25,0 C 48 % 1015,6 hPa 0,0 l/m 2 min 0 min 976 W/m 11,3 km/h (2 Bft) 97,83 %
18.07.2018 15:44 27,0 C 28,3 C 25,0 C 48 % 1015,7 hPa 0,0 l/m 2 min 0 min 772 W/m 9,0 km/h (2 Bft) 95,74 %
18.07.2018 15:46 27,0 C 27,8 C 24,4 C 48 % 1015,6 hPa 0,0 l/m 0 min 0 min 268 W/m 9,0 km/h (2 Bft) 97,87 %
18.07.2018 15:48 27,0 C 27,2 C 24,4 C 48 % 1015,7 hPa 0,0 l/m 0 min 0 min 251 W/m 9,0 km/h (2 Bft) 97,87 %
18.07.2018 15:50 27,0 C 26,7 C 24,4 C 47 % 1015,6 hPa 0,0 l/m 0 min 0 min 237 W/m 9,0 km/h (2 Bft) 97,87 %
18.07.2018 15:52 26,9 C 26,7 C 24,4 C 48 % 1015,6 hPa 0,0 l/m 0 min 0 min 222 W/m 6,8 km/h (2 Bft) 97,87 %
18.07.2018 15:54 26,9 C 26,1 C 23,9 C 47 % 1015,6 hPa 0,0 l/m 0 min 0 min 219 W/m 6,8 km/h (2 Bft) 97,67 %
18.07.2018 15:56 26,9 C 26,1 C 23,9 C 47 % 1015,6 hPa 0,0 l/m 0 min 0 min 219 W/m 4,5 km/h (1 Bft) 97,87 %
18.07.2018 15:58 26,8 C 26,1 C 23,9 C 46 % 1015,6 hPa 0,0 l/m 0 min 0 min 221 W/m 4,5 km/h (1 Bft) 95,74 %
18.07.2018 16:00 26,8 C 26,1 C 23,9 C 47 % 1015,6 hPa 0,0 l/m 0 min 0 min 225 W/m 9,0 km/h (2 Bft) 95,74 %
18.07.2018 16:02 26,7 C 26,1 C 23,9 C 47 % 1015,6 hPa 0,0 l/m 0 min 0 min 235 W/m 6,8 km/h (2 Bft) 97,87 %
18.07.2018 16:04 26,6 C 26,1 C 23,9 C 47 % 1015,6 hPa 0,0 l/m 0 min 0 min 251 W/m 9,0 km/h (2 Bft) 97,87 %
18.07.2018 16:06 26,5 C 26,1 C 23,9 C 46 % 1015,5 hPa 0,0 l/m 0 min 0 min 302 W/m 4,5 km/h (1 Bft) 97,87 %
18.07.2018 16:08 26,5 C 27,2 C 23,9 C 49 % 1015,5 hPa 0,0 l/m 0 min 0 min 318 W/m 4,5 km/h (1 Bft) 97,87 %
18.07.2018 16:10 26,5 C 30,0 C 23,9 C 50 % 1015,5 hPa 0,0 l/m 2 min 0 min 645 W/m 9,0 km/h (2 Bft) 93,62 %
18.07.2018 16:12 26,5 C 31,1 C 24,4 C 49 % 1015,5 hPa 0,0 l/m 2 min 0 min 932 W/m 9,0 km/h (2 Bft) 95,74 %
18.07.2018 16:14 26,5 C 32,2 C 24,4 C 49 % 1015,4 hPa 0,0 l/m 2 min 0 min 917 W/m 9,0 km/h (2 Bft) 95,65 %
18.07.2018 16:16 26,6 C 32,8 C 25,0 C 50 % 1015,5 hPa 0,0 l/m 2 min 0 min 891 W/m 6,8 km/h (2 Bft) 95,74 %
18.07.2018 16:18 26,6 C 32,8 C 24,4 C 48 % 1015,5 hPa 0,0 l/m 2 min 0 min 868 W/m 13,5 km/h (3 Bft) 97,87 %
18.07.2018 16:20 26,7 C 33,3 C 25,0 C 49 % 1015,5 hPa 0,0 l/m 2 min 0 min 855 W/m 13,5 km/h (3 Bft) 97,87 %
18.07.2018 16:22 26,7 C 32,2 C 24,4 C 47 % 1015,4 hPa 0,0 l/m 2 min 0 min 844 W/m 9,0 km/h (2 Bft) 95,74 %
18.07.2018 16:24 26,7 C 32,8 C 25,0 C 46 % 1015,4 hPa 0,0 l/m 2 min 0 min 844 W/m 6,8 km/h (2 Bft) 97,87 %
18.07.2018 16:26 26,8 C 31,1 C 25,0 C 46 % 1015,4 hPa 0,0 l/m 2 min 0 min 841 W/m 13,5 km/h (3 Bft) 97,83 %
18.07.2018 16:28 26,9 C 29,4 C 25,6 C 45 % 1015,4 hPa 0,0 l/m 2 min 0 min 834 W/m 13,5 km/h (3 Bft) 97,87 %
18.07.2018 16:30 26,9 C 28,9 C 25,0 C 46 % 1015,4 hPa 0,0 l/m 2 min 0 min 810 W/m 11,3 km/h (2 Bft) 97,87 %
18.07.2018 16:32 27,0 C 28,3 C 25,6 C 45 % 1015,4 hPa 0,0 l/m 2 min 0 min 810 W/m 9,0 km/h (2 Bft) 95,74 %
18.07.2018 16:34 27,0 C 28,9 C 25,0 C 45 % 1015,4 hPa 0,0 l/m 2 min 0 min 821 W/m 11,3 km/h (2 Bft) 97,87 %
18.07.2018 16:36 27,1 C 30,6 C 25,6 C 48 % 1015,4 hPa 0,0 l/m 2 min 0 min 829 W/m 6,8 km/h (2 Bft) 97,87 %
18.07.2018 16:38 27,1 C 31,7 C 25,6 C 48 % 1015,5 hPa 0,0 l/m 2 min 0 min 838 W/m 6,8 km/h (2 Bft) 97,83 %
18.07.2018 16:40 27,2 C 31,7 C 25,6 C 47 % 1015,5 hPa 0,0 l/m 2 min 0 min 849 W/m 9,0 km/h (2 Bft) 95,74 %
18.07.2018 16:42 27,2 C 32,2 C 25,6 C 47 % 1015,4 hPa 0,0 l/m 2 min 0 min 843 W/m 6,8 km/h (2 Bft) 95,74 %
18.07.2018 16:44 27,3 C 31,7 C 25,6 C 45 % 1015,4 hPa 0,0 l/m 2 min 0 min 841 W/m 6,8 km/h (2 Bft) 95,74 %
18.07.2018 16:46 27,4 C 31,1 C 25,6 C 45 % 1015,4 hPa 0,0 l/m 2 min 0 min 847 W/m 9,0 km/h (2 Bft) 97,87 %
18.07.2018 16:48 27,4 C 31,7 C 25,6 C 47 % 1015,4 hPa 0,0 l/m 2 min 0 min 832 W/m 6,8 km/h (2 Bft) 95,65 %
18.07.2018 16:50 27,5 C 32,2 C 25,6 C 47 % 1015,3 hPa 0,0 l/m 2 min 0 min 821 W/m 6,8 km/h (2 Bft) 95,74 %
18.07.2018 16:52 27,6 C 32,2 C 25,6 C 47 % 1015,3 hPa 0,0 l/m 2 min 0 min 811 W/m 11,3 km/h (2 Bft) 95,74 %
18.07.2018 16:54 27,7 C 31,1 C 25,6 C 44 % 1015,3 hPa 0,0 l/m 2 min 0 min 799 W/m 9,0 km/h (2 Bft) 98,00 %
18.07.2018 16:56 27,7 C 31,1 C 25,6 C 45 % 1015,3 hPa 0,0 l/m 2 min 0 min 771 W/m 9,0 km/h (2 Bft) 97,87 %
18.07.2018 16:58 27,8 C 31,7 C 26,1 C 48 % 1015,3 hPa 0,0 l/m 2 min 0 min 748 W/m 9,0 km/h (2 Bft) 97,83 %
18.07.2018 17:00 27,8 C 31,1 C 25,6 C 46 % 1015,3 hPa 0,0 l/m 2 min 0 min 770 W/m 11,3 km/h (2 Bft) 93,62 %
18.07.2018 17:02 27,9 C 31,1 C 25,6 C 45 % 1015,3 hPa 0,0 l/m 2 min 0 min 766 W/m 9,0 km/h (2 Bft) 95,74 %
18.07.2018 17:04 27,9 C 29,4 C 25,6 C 45 % 1015,3 hPa 0,0 l/m 2 min 0 min 671 W/m 9,0 km/h (2 Bft) 95,74 %
18.07.2018 17:06 27,9 C 28,9 C 25,0 C 46 % 1015,3 hPa 0,0 l/m 0 min 0 min 234 W/m 9,0 km/h (2 Bft) 95,74 %
18.07.2018 17:08 27,9 C 28,9 C 25,0 C 46 % 1015,3 hPa 0,0 l/m 0 min 0 min 235 W/m 6,8 km/h (2 Bft) 95,74 %
18.07.2018 17:10 27,9 C 28,9 C 25,0 C 46 % 1015,3 hPa 0,0 l/m 0 min 0 min 255 W/m 6,8 km/h (2 Bft) 93,48 %
18.07.2018 17:12 27,9 C 28,9 C 25,0 C 44 % 1015,3 hPa 0,0 l/m 2 min 0 min 644 W/m 6,8 km/h (2 Bft) 97,87 %
18.07.2018 17:14 27,9 C 30,0 C 25,0 C 46 % 1015,3 hPa 0,0 l/m 2 min 0 min 752 W/m 6,8 km/h (2 Bft) 95,74 %
18.07.2018 17:16 27,9 C 30,6 C 25,6 C 46 % 1015,3 hPa 0,0 l/m 2 min 0 min 748 W/m 6,8 km/h (2 Bft) 97,87 %
18.07.2018 17:18 27,9 C 30,6 C 25,6 C 45 % 1015,3 hPa 0,0 l/m 2 min 0 min 746 W/m 4,5 km/h (1 Bft) 95,74 %
18.07.2018 17:20 28,0 C 30,6 C 25,6 C 45 % 1015,3 hPa 0,0 l/m 2 min 0 min 759 W/m 11,3 km/h (2 Bft) 97,87 %
18.07.2018 17:22 28,0 C 30,6 C 25,6 C 46 % 1015,2 hPa 0,0 l/m 2 min 0 min 773 W/m 6,8 km/h (2 Bft) 95,74 %
18.07.2018 17:24 28,1 C 30,6 C 26,1 C 46 % 1015,2 hPa 0,0 l/m 2 min 0 min 768 W/m 6,8 km/h (2 Bft) 97,87 %
18.07.2018 17:26 28,1 C 29,4 C 26,1 C 43 % 1015,1 hPa 0,0 l/m 2 min 0 min 755 W/m 11,3 km/h (2 Bft) 97,87 %
18.07.2018 17:28 28,2 C 29,4 C 26,1 C 44 % 1015,1 hPa 0,0 l/m 2 min 0 min 743 W/m 6,8 km/h (2 Bft) 97,83 %
18.07.2018 17:30 28,2 C 29,4 C 26,1 C 45 % 1015,1 hPa 0,0 l/m 2 min 0 min 731 W/m 6,8 km/h (2 Bft) 95,74 %
18.07.2018 17:32 28,2 C 29,4 C 26,1 C 46 % 1015,1 hPa 0,0 l/m 2 min 0 min 739 W/m 9,0 km/h (2 Bft) 95,74 %
18.07.2018 17:34 28,3 C 28,3 C 26,7 C 43 % 1015,1 hPa 0,0 l/m 2 min 0 min 749 W/m 11,3 km/h (2 Bft) 97,87 %
18.07.2018 17:36 28,3 C 28,3 C 26,1 C 44 % 1015,1 hPa 0,0 l/m 2 min 0 min 747 W/m 4,5 km/h (1 Bft) 97,87 %
18.07.2018 17:38 28,3 C 28,3 C 26,7 C 43 % 1015,0 hPa 0,0 l/m 2 min 0 min 737 W/m 13,5 km/h (3 Bft) 97,87 %
18.07.2018 17:40 28,3 C 28,3 C 26,7 C 42 % 1015,0 hPa 0,0 l/m 2 min 0 min 716 W/m 9,0 km/h (2 Bft) 95,65 %
18.07.2018 17:42 28,4 C 28,9 C 26,1 C 43 % 1015,0 hPa 0,0 l/m 2 min 0 min 701 W/m 9,0 km/h (2 Bft) 97,87 %
18.07.2018 17:44 28,4 C 28,9 C 26,1 C 44 % 1015,0 hPa 0,0 l/m 2 min 0 min 695 W/m 6,8 km/h (2 Bft) 97,87 %
18.07.2018 17:46 28,4 C 28,9 C 26,1 C 43 % 1015,0 hPa 0,0 l/m 2 min 0 min 694 W/m 4,5 km/h (1 Bft) 97,87 %
18.07.2018 17:48 28,4 C 28,3 C 26,1 C 43 % 1015,0 hPa 0,0 l/m 2 min 0 min 687 W/m 6,8 km/h (2 Bft) 97,87 %
18.07.2018 17:50 28,4 C 28,9 C 26,1 C 45 % 1015,0 hPa 0,0 l/m 2 min 0 min 673 W/m 4,5 km/h (1 Bft) 95,74 %
18.07.2018 17:52 28,5 C 28,9 C 26,7 C 43 % 1015,0 hPa 0,0 l/m 2 min 0 min 670 W/m 9,0 km/h (2 Bft) 97,83 %
18.07.2018 17:54 28,5 C 28,3 C 26,7 C 43 % 1015,0 hPa 0,0 l/m 2 min 0 min 665 W/m 9,0 km/h (2 Bft) 97,67 %
18.07.2018 17:56 28,5 C 28,9 C 26,1 C 44 % 1015,0 hPa 0,0 l/m 2 min 0 min 662 W/m 6,8 km/h (2 Bft) 97,87 %
18.07.2018 17:58 28,5 C 28,9 C 26,1 C 43 % 1015,0 hPa 0,0 l/m 2 min 0 min 660 W/m 6,8 km/h (2 Bft) 100,00 %
18.07.2018 18:00 28,5 C 28,9 C 25,6 C 44 % 1014,9 hPa 0,0 l/m 2 min 0 min 669 W/m 6,8 km/h (2 Bft) 100,00 %
18.07.2018 18:02 28,5 C 28,9 C 26,1 C 44 % 1014,9 hPa 0,0 l/m 2 min 0 min 657 W/m 4,5 km/h (1 Bft) 100,00 %
18.07.2018 18:04 28,5 C 28,9 C 26,1 C 43 % 1015,0 hPa 0,0 l/m 2 min 0 min 657 W/m 9,0 km/h (2 Bft) 100,00 %
18.07.2018 18:08 28,5 C 28,9 C 26,1 C 44 % 1015,0 hPa 0,0 l/m 4 min 0 min 650 W/m 9,0 km/h (2 Bft) 100,00 %
18.07.2018 18:10 28,6 C 28,9 C 26,7 C 44 % 1015,0 hPa 0,0 l/m 2 min 0 min 643 W/m 9,0 km/h (2 Bft) 100,00 %
18.07.2018 18:12 28,6 C 29,4 C 26,7 C 44 % 1015,0 hPa 0,0 l/m 2 min 0 min 637 W/m 4,5 km/h (1 Bft) 100,00 %
18.07.2018 18:14 28,6 C 29,4 C 26,7 C 44 % 1015,0 hPa 0,0 l/m 2 min 0 min 647 W/m 6,8 km/h (2 Bft) 100,00 %
18.07.2018 18:16 28,6 C 29,4 C 26,7 C 44 % 1014,9 hPa 0,0 l/m 2 min 0 min 643 W/m 6,8 km/h (2 Bft) 100,00 %
18.07.2018 18:18 28,6 C 29,4 C 26,1 C 44 % 1014,9 hPa 0,0 l/m 2 min 0 min 618 W/m 6,8 km/h (2 Bft) 100,00 %
18.07.2018 18:20 28,6 C 28,3 C 26,1 C 41 % 1014,9 hPa 0,0 l/m 2 min 0 min 370 W/m 9,0 km/h (2 Bft) 100,00 %
18.07.2018 18:22 28,6 C 28,3 C 26,1 C 45 % 1014,9 hPa 0,0 l/m 0 min 0 min 208 W/m 4,5 km/h (1 Bft) 97,83 %
18.07.2018 18:24 28,5 C 27,8 C 25,6 C 44 % 1014,9 hPa 0,0 l/m 0 min 0 min 221 W/m 4,5 km/h (1 Bft) 98,00 %
18.07.2018 18:26 28,5 C 27,8 C 25,6 C 44 % 1014,9 hPa 0,0 l/m 2 min 0 min 288 W/m 4,5 km/h (1 Bft) 100,00 %
18.07.2018 18:28 28,4 C 28,3 C 25,6 C 44 % 1015,0 hPa 0,0 l/m 2 min 0 min 450 W/m 4,5 km/h (1 Bft) 100,00 %
18.07.2018 18:30 28,4 C 28,3 C 25,6 C 44 % 1015,0 hPa 0,0 l/m 2 min 0 min 570 W/m 6,8 km/h (2 Bft) 100,00 %
18.07.2018 18:32 28,4 C 28,3 C 25,6 C 43 % 1014,9 hPa 0,0 l/m 2 min 0 min 533 W/m 6,8 km/h (2 Bft) 100,00 %
18.07.2018 18:34 28,3 C 27,8 C 25,6 C 42 % 1014,9 hPa 0,0 l/m 2 min 0 min 466 W/m 4,5 km/h (1 Bft) 95,74 %
18.07.2018 18:36 28,3 C 27,8 C 25,6 C 43 % 1014,9 hPa 0,0 l/m 2 min 0 min 222 W/m 11,3 km/h (2 Bft) 97,87 %
18.07.2018 18:38 28,2 C 27,2 C 25,6 C 43 % 1014,9 hPa 0,0 l/m 2 min 0 min 324 W/m 6,8 km/h (2 Bft) 97,87 %
18.07.2018 18:40 28,2 C 27,2 C 25,6 C 44 % 1014,9 hPa 0,0 l/m 2 min 0 min 505 W/m 6,8 km/h (2 Bft) 97,87 %
18.07.2018 18:42 28,1 C 27,8 C 25,0 C 44 % 1014,8 hPa 0,0 l/m 2 min 0 min 527 W/m 6,8 km/h (2 Bft) 97,87 %
18.07.2018 18:44 28,1 C 27,8 C 25,6 C 44 % 1014,8 hPa 0,0 l/m 2 min 0 min 521 W/m 6,8 km/h (2 Bft) 97,83 %
18.07.2018 18:46 28,0 C 27,8 C 25,6 C 42 % 1014,8 hPa 0,0 l/m 2 min 0 min 498 W/m 4,5 km/h (1 Bft) 97,87 %
18.07.2018 18:48 28,0 C 27,8 C 25,6 C 44 % 1014,8 hPa 0,0 l/m 2 min 0 min 462 W/m 4,5 km/h (1 Bft) 97,87 %
18.07.2018 18:50 28,0 C 27,8 C 25,6 C 44 % 1014,9 hPa 0,0 l/m 2 min 0 min 452 W/m 6,8 km/h (2 Bft) 97,87 %
18.07.2018 18:52 27,9 C 27,8 C 25,6 C 44 % 1014,9 hPa 0,0 l/m 2 min 0 min 481 W/m 6,8 km/h (2 Bft) 95,83 %
18.07.2018 18:54 27,9 C 27,8 C 25,6 C 43 % 1014,9 hPa 0,0 l/m 2 min 0 min 468 W/m 6,8 km/h (2 Bft) 95,74 %
18.07.2018 18:56 27,8 C 27,8 C 25,6 C 43 % 1014,9 hPa 0,0 l/m 2 min 0 min 442 W/m 4,5 km/h (1 Bft) 97,83 %
18.07.2018 18:58 27,8 C 27,8 C 25,6 C 44 % 1014,8 hPa 0,0 l/m 2 min 0 min 467 W/m 9,0 km/h (2 Bft) 97,87 %
18.07.2018 19:00 27,8 C 27,8 C 25,0 C 44 % 1014,9 hPa 0,0 l/m 2 min 0 min 481 W/m 4,5 km/h (1 Bft) 97,87 %
18.07.2018 19:02 27,8 C 27,8 C 23,3 C 45 % 1014,9 hPa 0,0 l/m 2 min 0 min 471 W/m 4,5 km/h (1 Bft) 97,87 %
18.07.2018 19:04 27,7 C 27,2 C 22,8 C 46 % 1014,9 hPa 0,0 l/m 2 min 0 min 413 W/m 4,5 km/h (1 Bft) 97,87 %
18.07.2018 19:06 27,7 C 26,1 C 22,2 C 46 % 1014,9 hPa 0,0 l/m 2 min 0 min 326 W/m 4,5 km/h (1 Bft) 97,87 %
18.07.2018 19:08 27,7 C 26,1 C 21,1 C 45 % 1014,9 hPa 0,0 l/m 2 min 0 min 192 W/m 4,5 km/h (1 Bft) 95,65 %
18.07.2018 19:10 27,7 C 25,6 C 18,9 C 46 % 1014,9 hPa 0,0 l/m 2 min 0 min 181 W/m 4,5 km/h (1 Bft) 97,87 %
18.07.2018 19:12 27,6 C 25,6 C 18,3 C 46 % 1014,9 hPa 0,0 l/m 2 min 0 min 179 W/m 2,3 km/h (1 Bft) 97,87 %
18.07.2018 19:14 27,5 C 22,8 C 18,9 C 44 % 1014,9 hPa 0,0 l/m 2 min 0 min 215 W/m 9,0 km/h (2 Bft) 97,87 %
18.07.2018 19:16 27,4 C 22,8 C 18,9 C 47 % 1014,9 hPa 0,0 l/m 2 min 0 min 210 W/m 4,5 km/h (1 Bft) 97,87 %
18.07.2018 19:18 27,4 C 23,3 C 18,9 C 47 % 1014,9 hPa 0,0 l/m 2 min 0 min 299 W/m 6,8 km/h (2 Bft) 97,87 %
18.07.2018 19:20 27,3 C 25,0 C 18,9 C 47 % 1014,9 hPa 0,0 l/m 2 min 0 min 386 W/m 2,3 km/h (1 Bft) 97,83 %
18.07.2018 19:22 27,3 C 23,9 C 17,8 C 47 % 1014,9 hPa 0,0 l/m 2 min 0 min 384 W/m 4,5 km/h (1 Bft) 95,74 %
18.07.2018 19:24 27,2 C 23,3 C 17,8 C 45 % 1014,8 hPa 0,0 l/m 2 min 0 min 368 W/m 2,3 km/h (1 Bft) 100,00 %
18.07.2018 19:26 27,1 C 23,3 C 18,3 C 49 % 1014,8 hPa 0,0 l/m 2 min 0 min 293 W/m 0,0 km/h (0 Bft) 100,00 %
18.07.2018 19:28 27,1 C 22,8 C 18,3 C 50 % 1014,9 hPa 0,0 l/m 2 min 0 min 190 W/m 0,0 km/h (0 Bft) 100,00 %
18.07.2018 19:30 27,1 C 22,8 C 18,3 C 52 % 1014,8 hPa 0,0 l/m 2 min 0 min 162 W/m 6,8 km/h (2 Bft) 97,87 %
18.07.2018 19:32 27,1 C 21,7 C 17,8 C 51 % 1014,8 hPa 0,0 l/m 2 min 0 min 176 W/m 4,5 km/h (1 Bft) 97,83 %
18.07.2018 19:34 26,9 C 21,7 C 17,8 C 48 % 1014,9 hPa 0,0 l/m 2 min 0 min 265 W/m 6,8 km/h (2 Bft) 100,00 %
18.07.2018 19:36 26,9 C 20,6 C 17,2 C 48 % 1014,9 hPa 0,0 l/m 2 min 0 min 359 W/m 2,3 km/h (1 Bft) 100,00 %
18.07.2018 19:38 26,8 C 20,6 C 17,2 C 49 % 1014,9 hPa 0,0 l/m 2 min 0 min 352 W/m 4,5 km/h (1 Bft) 100,00 %
18.07.2018 19:40 26,7 C 21,1 C 16,7 C 47 % 1014,8 hPa 0,0 l/m 2 min 0 min 325 W/m 6,8 km/h (2 Bft) 100,00 %
18.07.2018 19:42 26,7 C 21,1 C 16,7 C 48 % 1014,7 hPa 0,0 l/m 2 min 0 min 332 W/m 2,3 km/h (1 Bft) 100,00 %
18.07.2018 19:44 26,6 C 21,1 C 16,7 C 48 % 1014,8 hPa 0,0 l/m 2 min 0 min 332 W/m 0,0 km/h (0 Bft) 100,00 %
18.07.2018 19:46 26,6 C 20,6 C 16,7 C 49 % 1014,8 hPa 0,0 l/m 2 min 0 min 283 W/m 6,8 km/h (2 Bft) 100,00 %
18.07.2018 19:48 26,5 C 21,1 C 16,7 C 49 % 1014,8 hPa 0,0 l/m 2 min 0 min 173 W/m 2,3 km/h (1 Bft) 100,00 %
18.07.2018 19:50 26,4 C 21,1 C 17,2 C 51 % 1014,8 hPa 0,0 l/m 2 min 0 min 135 W/m 2,3 km/h (1 Bft) 100,00 %
18.07.2018 19:52 26,3 C 20,6 C 17,2 C 50 % 1014,8 hPa 0,0 l/m 2 min 0 min 135 W/m 9,0 km/h (2 Bft) 100,00 %
18.07.2018 19:54 26,3 C 19,4 C 16,7 C 50 % 1014,8 hPa 0,0 l/m 2 min 0 min 132 W/m 9,0 km/h (2 Bft) 100,00 %
18.07.2018 19:56 26,2 C 18,3 C 16,1 C 49 % 1014,8 hPa 0,0 l/m 2 min 0 min 127 W/m 4,5 km/h (1 Bft) 100,00 %
18.07.2018 19:58 26,1 C 17,8 C 16,7 C 54 % 1014,8 hPa 0,0 l/m 2 min 0 min 122 W/m 6,8 km/h (2 Bft) 97,87 %
18.07.2018 20:00 26,1 C 17,2 C 16,7 C 56 % 1014,9 hPa 0,0 l/m 2 min 0 min 120 W/m 4,5 km/h (1 Bft) 100,00 %
18.07.2018 20:02 26,0 C 16,7 C 16,7 C 54 % 1014,8 hPa 0,0 l/m 2 min 0 min 120 W/m 9,0 km/h (2 Bft) 100,00 %
18.07.2018 20:04 25,9 C 17,2 C 16,7 C 55 % 1014,8 hPa 0,0 l/m 2 min 0 min 118 W/m 6,8 km/h (2 Bft) 100,00 %
18.07.2018 20:06 25,8 C 17,2 C 16,1 C 58 % 1014,8 hPa 0,0 l/m 2 min 0 min 116 W/m 6,8 km/h (2 Bft) 97,83 %
18.07.2018 20:08 25,7 C 16,7 C 16,1 C 52 % 1014,8 hPa 0,0 l/m 2 min 0 min 112 W/m 6,8 km/h (2 Bft) 97,87 %
18.07.2018 20:10 25,6 C 16,7 C 16,1 C 57 % 1014,8 hPa 0,0 l/m 2 min 0 min 108 W/m 2,3 km/h (1 Bft) 97,87 %
18.07.2018 20:12 25,4 C 16,7 C 16,1 C 58 % 1014,8 hPa 0,0 l/m 2 min 0 min 106 W/m 4,5 km/h (1 Bft) 97,87 %
18.07.2018 20:14 25,3 C 16,7 C 16,1 C 59 % 1014,8 hPa 0,0 l/m 2 min 0 min 102 W/m 6,8 km/h (2 Bft) 97,87 %
18.07.2018 20:16 25,2 C 16,7 C 15,6 C 56 % 1014,9 hPa 0,0 l/m 2 min 0 min 98 W/m 4,5 km/h (1 Bft) 95,74 %
18.07.2018 20:18 25,1 C 16,7 C 16,1 C 57 % 1014,8 hPa 0,0 l/m 2 min 0 min 96 W/m 4,5 km/h (1 Bft) 97,83 %
18.07.2018 20:20 25,1 C 16,7 C 16,1 C 60 % 1014,8 hPa 0,0 l/m 2 min 0 min 94 W/m 4,5 km/h (1 Bft) 97,87 %
18.07.2018 20:22 24,9 C 16,7 C 16,1 C 59 % 1014,8 hPa 0,0 l/m 2 min 0 min 92 W/m 4,5 km/h (1 Bft) 95,74 %
18.07.2018 20:24 24,8 C 16,7 C 15,6 C 58 % 1014,8 hPa 0,0 l/m 2 min 0 min 88 W/m 2,3 km/h (1 Bft) 95,74 %
18.07.2018 20:26 24,6 C 16,7 C 16,1 C 57 % 1014,8 hPa 0,0 l/m 2 min 0 min 84 W/m 4,5 km/h (1 Bft) 95,74 %
18.07.2018 20:28 24,5 C 16,7 C 16,1 C 58 % 1014,8 hPa 0,0 l/m 2 min 0 min 82 W/m 4,5 km/h (1 Bft) 95,74 %
18.07.2018 20:30 24,3 C 16,7 C 16,1 C 58 % 1014,8 hPa 0,0 l/m 2 min 0 min 81 W/m 2,3 km/h (1 Bft) 97,83 %
18.07.2018 20:32 24,2 C 16,7 C 16,1 C 60 % 1014,9 hPa 0,0 l/m 2 min 0 min 79 W/m 2,3 km/h (1 Bft) 93,62 %
18.07.2018 20:34 24,1 C 16,1 C 15,6 C 59 % 1014,8 hPa 0,0 l/m 2 min 0 min 76 W/m 4,5 km/h (1 Bft) 95,74 %
18.07.2018 20:36 23,9 C 16,1 C 15,6 C 57 % 1014,8 hPa 0,0 l/m 2 min 0 min 72 W/m 4,5 km/h (1 Bft) 95,74 %
18.07.2018 20:38 23,8 C 16,7 C 16,1 C 56 % 1014,8 hPa 0,0 l/m 2 min 0 min 67 W/m 4,5 km/h (1 Bft) 97,87 %
18.07.2018 20:40 23,7 C 16,7 C 15,6 C 57 % 1014,8 hPa 0,0 l/m 2 min 0 min 63 W/m 4,5 km/h (1 Bft) 95,74 %
18.07.2018 20:42 23,6 C 16,1 C 15,6 C 61 % 1014,8 hPa 0,0 l/m 2 min 0 min 60 W/m 4,5 km/h (1 Bft) 95,65 %
18.07.2018 20:44 23,5 C 16,1 C 16,1 C 61 % 1014,8 hPa 0,0 l/m 0 min 0 min 55 W/m 2,3 km/h (1 Bft) 95,74 %
18.07.2018 20:46 23,4 C 16,1 C 16,1 C 62 % 1014,8 hPa 0,0 l/m 0 min 0 min 53 W/m 4,5 km/h (1 Bft) 93,62 %
18.07.2018 20:48 23,3 C 16,1 C 16,1 C 63 % 1014,8 hPa 0,0 l/m 0 min 0 min 49 W/m 0,0 km/h (0 Bft) 95,74 %
18.07.2018 20:50 23,2 C 16,1 C 16,1 C 66 % 1014,8 hPa 0,0 l/m 0 min 0 min 46 W/m 0,0 km/h (0 Bft) 93,62 %
18.07.2018 20:52 23,1 C 16,1 C 16,1 C 66 % 1014,8 hPa 0,0 l/m 0 min 0 min 44 W/m 2,3 km/h (1 Bft) 95,74 %
18.07.2018 20:54 22,9 C 16,1 C 16,1 C 66 % 1014,8 hPa 0,0 l/m 0 min 0 min 40 W/m 2,3 km/h (1 Bft) 95,92 %
18.07.2018 20:56 22,8 C 16,1 C 15,6 C 66 % 1014,8 hPa 0,0 l/m 0 min 0 min 36 W/m 9,0 km/h (2 Bft) 95,74 %
18.07.2018 20:58 22,7 C 16,1 C 15,6 C 63 % 1014,9 hPa 0,0 l/m 0 min 0 min 33 W/m 4,5 km/h (1 Bft) 93,48 %
18.07.2018 21:00 22,6 C 15,6 C 15,6 C 67 % 1014,8 hPa 0,0 l/m 0 min 0 min 31 W/m 2,3 km/h (1 Bft) 93,62 %
18.07.2018 21:02 22,4 C 16,1 C 15,6 C 68 % 1014,8 hPa 0,0 l/m 0 min 0 min 29 W/m 2,3 km/h (1 Bft) 89,36 %
18.07.2018 21:04 22,4 C 16,1 C 15,6 C 69 % 1014,8 hPa 0,0 l/m 0 min 0 min 28 W/m 4,5 km/h (1 Bft) 95,74 %
18.07.2018 21:06 22,3 C 16,1 C 15,6 C 68 % 1014,8 hPa 0,0 l/m 0 min 0 min 31 W/m 4,5 km/h (1 Bft) 95,74 %
18.07.2018 21:08 22,2 C 16,7 C 15,6 C 69 % 1014,8 hPa 0,0 l/m 2 min 0 min 31 W/m 2,3 km/h (1 Bft) 97,87 %
18.07.2018 21:10 22,1 C 16,7 C 15,6 C 70 % 1014,9 hPa 0,0 l/m 2 min 0 min 30 W/m 0,0 km/h (0 Bft) 97,83 %
18.07.2018 21:12 21,9 C 16,7 C 15,6 C 70 % 1014,8 hPa 0,0 l/m 2 min 0 min 28 W/m 0,0 km/h (0 Bft) 95,74 %
18.07.2018 21:14 21,8 C 16,7 C 15,6 C 69 % 1014,8 hPa 0,0 l/m 2 min 0 min 26 W/m 6,8 km/h (2 Bft) 95,74 %
18.07.2018 21:16 21,7 C 16,7 C 16,1 C 69 % 1014,9 hPa 0,0 l/m 2 min 0 min 25 W/m 4,5 km/h (1 Bft) 97,92 %
18.07.2018 21:18 21,6 C 16,7 C 16,1 C 69 % 1014,9 hPa 0,0 l/m 2 min 0 min 22 W/m 4,5 km/h (1 Bft) 100,00 %
18.07.2018 21:20 21,4 C 17,2 C 16,1 C 69 % 1014,9 hPa 0,0 l/m 2 min 0 min 20 W/m 2,3 km/h (1 Bft) 100,00 %
18.07.2018 21:22 21,3 C 17,2 C 16,1 C 70 % 1014,9 hPa 0,0 l/m 0 min 0 min 18 W/m 0,0 km/h (0 Bft) 100,00 %
18.07.2018 21:24 21,3 C 17,2 C 16,1 C 70 % 1014,9 hPa 0,0 l/m 0 min 0 min 16 W/m 4,5 km/h (1 Bft) 94,29 %
18.07.2018 21:26 21,2 C 17,2 C 16,1 C 70 % 1014,9 hPa 0,0 l/m 0 min 0 min 14 W/m 2,3 km/h (1 Bft) 97,87 %
18.07.2018 21:28 21,1 C 17,2 C 16,1 C 70 % 1015,0 hPa 0,0 l/m 0 min 0 min 12 W/m 0,0 km/h (0 Bft) 96,61 %
18.07.2018 21:30 21,0 C 17,8 C 16,1 C 69 % 1015,0 hPa 0,0 l/m 0 min 0 min 10 W/m 6,8 km/h (2 Bft) 97,87 %
18.07.2018 21:32 20,9 C 17,8 C 16,7 C 68 % 1015,1 hPa 0,0 l/m 0 min 0 min 8 W/m 4,5 km/h (1 Bft) 97,14 %
18.07.2018 21:34 20,8 C 17,8 C 16,7 C 69 % 1015,0 hPa 0,0 l/m 0 min 0 min 7 W/m 2,3 km/h (1 Bft) 95,74 %
18.07.2018 21:36 20,8 C 18,9 C 16,7 C 70 % 1015,1 hPa 0,0 l/m 0 min 0 min 5 W/m 0,0 km/h (0 Bft) 96,55 %
18.07.2018 21:38 20,7 C 19,4 C 16,1 C 71 % 1015,1 hPa 0,0 l/m 0 min 0 min 5 W/m 0,0 km/h (0 Bft) 97,87 %
18.07.2018 21:40 20,7 C 19,4 C 16,1 C 71 % 1015,1 hPa 0,0 l/m 0 min 0 min 5 W/m 2,3 km/h (1 Bft) 97,87 %
18.07.2018 21:42 20,6 C 19,4 C 16,7 C 71 % 1015,1 hPa 0,0 l/m 0 min 0 min 5 W/m 4,5 km/h (1 Bft) 97,14 %
18.07.2018 21:44 20,6 C 19,4 C 16,7 C 70 % 1015,1 hPa 0,0 l/m 0 min 0 min 0 W/m 6,8 km/h (2 Bft) 95,74 %
18.07.2018 21:46 20,5 C 19,4 C 16,7 C 70 % 1015,1 hPa 0,0 l/m 0 min 0 min 0 W/m 4,5 km/h (1 Bft) 97,83 %
18.07.2018 21:48 20,4 C 20,0 C 16,7 C 71 % 1015,1 hPa 0,0 l/m 0 min 0 min 0 W/m 2,3 km/h (1 Bft) 93,62 %
18.07.2018 21:50 20,4 C 19,4 C 16,7 C 71 % 1015,1 hPa 0,0 l/m 0 min 0 min 0 W/m 6,8 km/h (2 Bft) 98,31 %
18.07.2018 21:52 20,4 C 19,4 C 16,7 C 70 % 1015,1 hPa 0,0 l/m 0 min 0 min 0 W/m 4,5 km/h (1 Bft) 97,14 %
18.07.2018 21:54 20,3 C 19,4 C 16,7 C 71 % 1015,1 hPa 0,0 l/m 0 min 0 min 0 W/m 2,3 km/h (1 Bft) 98,15 %
18.07.2018 21:56 20,3 C 20,0 C 16,7 C 71 % 1015,1 hPa 0,0 l/m 0 min 0 min 0 W/m 0,0 km/h (0 Bft) 95,74 %
18.07.2018 21:58 20,3 C 20,0 C 16,7 C 71 % 1015,1 hPa 0,0 l/m 0 min 0 min 0 W/m 2,3 km/h (1 Bft) 97,87 %
18.07.2018 22:00 20,2 C 20,0 C 16,7 C 70 % 1015,2 hPa 0,0 l/m 0 min 0 min 0 W/m 6,8 km/h (2 Bft) 97,87 %
18.07.2018 22:02 20,2 C 20,0 C 16,7 C 70 % 1015,2 hPa 0,0 l/m 0 min 0 min 0 W/m 0,0 km/h (0 Bft) 93,62 %
18.07.2018 22:04 20,2 C 19,4 C 16,1 C 70 % 1015,3 hPa 0,0 l/m 0 min 0 min 0 W/m 2,3 km/h (1 Bft) 97,83 %
18.07.2018 22:06 20,1 C 20,0 C 16,1 C 71 % 1015,2 hPa 0,0 l/m 0 min 0 min 0 W/m 0,0 km/h (0 Bft) 97,87 %
18.07.2018 22:08 20,1 C 20,0 C 16,1 C 70 % 1015,2 hPa 0,0 l/m 0 min 0 min 0 W/m 0,0 km/h (0 Bft) 97,87 %
18.07.2018 22:10 20,1 C 20,0 C 16,1 C 70 % 1015,2 hPa 0,0 l/m 0 min 0 min 0 W/m 0,0 km/h (0 Bft) 97,87 %
18.07.2018 22:12 20,1 C 20,0 C 16,1 C 69 % 1015,2 hPa 0,0 l/m 0 min 0 min 0 W/m 0,0 km/h (0 Bft) 97,87 %
18.07.2018 22:14 20,0 C 20,0 C 16,1 C 69 % 1015,2 hPa 0,0 l/m 0 min 0 min 0 W/m 0,0 km/h (0 Bft) 100,00 %
18.07.2018 22:16 20,0 C 20,0 C 16,1 C 69 % 1015,3 hPa 0,0 l/m 0 min 0 min 0 W/m 0,0 km/h (0 Bft) 100,00 %
18.07.2018 22:18 19,9 C 20,0 C 16,1 C 68 % 1015,2 hPa 0,0 l/m 0 min 0 min 0 W/m 0,0 km/h (0 Bft) 100,00 %
18.07.2018 22:20 19,9 C 20,0 C 16,1 C 69 % 1015,2 hPa 0,0 l/m 0 min 0 min 0 W/m 0,0 km/h (0 Bft) 97,87 %
18.07.2018 22:22 19,9 C 20,0 C 16,1 C 70 % 1015,2 hPa 0,0 l/m 0 min 0 min 0 W/m 0,0 km/h (0 Bft) 100,00 %
18.07.2018 22:24 19,9 C 19,4 C 16,1 C 69 % 1015,3 hPa 0,0 l/m 0 min 0 min 0 W/m 0,0 km/h (0 Bft) 98,00 %
18.07.2018 22:26 19,9 C 19,4 C 16,1 C 69 % 1015,3 hPa 0,0 l/m 0 min 0 min 0 W/m 0,0 km/h (0 Bft) 97,83 %
18.07.2018 22:28 19,9 C 19,4 C 16,1 C 69 % 1015,3 hPa 0,0 l/m 0 min 0 min 0 W/m 0,0 km/h (0 Bft) 100,00 %
18.07.2018 22:30 19,9 C 19,4 C 16,1 C 69 % 1015,4 hPa 0,0 l/m 0 min 0 min 0 W/m 0,0 km/h (0 Bft) 97,87 %
18.07.2018 22:32 19,8 C 19,4 C 16,1 C 69 % 1015,3 hPa 0,0 l/m 0 min 0 min 0 W/m 0,0 km/h (0 Bft) 100,00 %
18.07.2018 22:34 19,8 C 19,4 C 16,7 C 70 % 1015,4 hPa 0,0 l/m 0 min 0 min 0 W/m 0,0 km/h (0 Bft) 100,00 %
18.07.2018 22:36 19,8 C 19,4 C 16,7 C 69 % 1015,5 hPa 0,0 l/m 0 min 0 min 0 W/m 0,0 km/h (0 Bft) 100,00 %
18.07.2018 22:38 19,8 C 19,4 C 16,7 C 69 % 1015,5 hPa 0,0 l/m 0 min 0 min 0 W/m 0,0 km/h (0 Bft) 100,00 %
18.07.2018 22:40 19,8 C 20,0 C 17,2 C 69 % 1015,4 hPa 0,0 l/m 0 min 0 min 0 W/m 0,0 km/h (0 Bft) 97,87 %
18.07.2018 22:42 19,8 C 20,0 C 17,2 C 68 % 1015,4 hPa 0,0 l/m 0 min 0 min 0 W/m 0,0 km/h (0 Bft) 97,87 %
18.07.2018 22:44 19,7 C 20,0 C 17,2 C 68 % 1015,5 hPa 0,0 l/m 0 min 0 min 0 W/m 0,0 km/h (0 Bft) 100,00 %
18.07.2018 22:46 19,7 C 20,0 C 17,8 C 68 % 1015,5 hPa 0,0 l/m 0 min 0 min 0 W/m 0,0 km/h (0 Bft) 100,00 %
18.07.2018 22:48 19,7 C 19,4 C 17,8 C 68 % 1015,5 hPa 0,0 l/m 0 min 0 min 0 W/m 0,0 km/h (0 Bft) 100,00 %
18.07.2018 22:50 19,7 C 19,4 C 17,8 C 68 % 1015,4 hPa 0,0 l/m 0 min 0 min 0 W/m 0,0 km/h (0 Bft) 97,83 %
18.07.2018 22:52 19,7 C 19,4 C 17,8 C 68 % 1015,6 hPa 0,0 l/m 0 min 0 min 0 W/m 0,0 km/h (0 Bft) 97,96 %
18.07.2018 22:54 19,7 C 19,4 C 17,8 C 68 % 1015,6 hPa 0,0 l/m 0 min 0 min 0 W/m 2,3 km/h (1 Bft) 97,14 %
18.07.2018 22:56 19,7 C 19,4 C 17,8 C 67 % 1015,5 hPa 0,0 l/m 0 min 0 min 0 W/m 0,0 km/h (0 Bft) 97,87 %
18.07.2018 22:58 19,7 C 19,4 C 18,3 C 67 % 1015,5 hPa 0,0 l/m 0 min 0 min 0 W/m 2,3 km/h (1 Bft) 97,83 %
18.07.2018 23:00 19,7 C 19,4 C 18,3 C 67 % 1015,6 hPa 0,0 l/m 0 min 0 min 0 W/m 2,3 km/h (1 Bft) 97,87 %
18.07.2018 23:02 19,7 C 19,4 C 18,3 C 67 % 1015,5 hPa 0,0 l/m 0 min 0 min 0 W/m 2,3 km/h (1 Bft) 97,87 %
18.07.2018 23:04 19,7 C 19,4 C 18,3 C 67 % 1015,5 hPa 0,0 l/m 0 min 0 min 0 W/m 0,0 km/h (0 Bft) 95,74 %
18.07.2018 23:06 19,7 C 19,4 C 18,3 C 67 % 1015,6 hPa 0,0 l/m 0 min 0 min 0 W/m 2,3 km/h (1 Bft) 95,74 %
18.07.2018 23:08 19,7 C 19,4 C 18,3 C 67 % 1015,6 hPa 0,0 l/m 0 min 0 min 0 W/m 2,3 km/h (1 Bft) 97,87 %
18.07.2018 23:10 19,7 C 19,4 C 18,3 C 67 % 1015,5 hPa 0,0 l/m 0 min 0 min 0 W/m 2,3 km/h (1 Bft) 97,83 %
18.07.2018 23:12 19,7 C 19,4 C 18,3 C 67 % 1015,6 hPa 0,0 l/m 0 min 0 min 0 W/m 2,3 km/h (1 Bft) 97,87 %
18.07.2018 23:14 19,7 C 19,4 C 17,8 C 67 % 1015,6 hPa 0,0 l/m 0 min 0 min 0 W/m 0,0 km/h (0 Bft) 97,87 %
18.07.2018 23:16 19,7 C 19,4 C 17,8 C 67 % 1015,7 hPa 0,0 l/m 0 min 0 min 0 W/m 2,3 km/h (1 Bft) 95,74 %
18.07.2018 23:18 19,7 C 18,9 C 18,3 C 67 % 1015,7 hPa 0,0 l/m 0 min 0 min 0 W/m 2,3 km/h (1 Bft) 97,87 %
18.07.2018 23:20 19,7 C 18,9 C 17,8 C 67 % 1015,7 hPa 0,0 l/m 0 min 0 min 0 W/m 2,3 km/h (1 Bft) 95,65 %
18.07.2018 23:22 19,7 C 19,4 C 17,8 C 67 % 1015,6 hPa 0,0 l/m 0 min 0 min 0 W/m 0,0 km/h (0 Bft) 96,43 %
18.07.2018 23:24 19,7 C 18,9 C 17,8 C 67 % 1015,6 hPa 0,0 l/m 0 min 0 min 0 W/m 0,0 km/h (0 Bft) 97,87 %
18.07.2018 23:26 19,7 C 18,9 C 17,8 C 67 % 1015,7 hPa 0,0 l/m 0 min 0 min 0 W/m 2,3 km/h (1 Bft) 97,83 %
18.07.2018 23:28 19,7 C 19,4 C 17,8 C 67 % 1015,7 hPa 0,0 l/m 0 min 0 min 0 W/m 0,0 km/h (0 Bft) 97,87 %
18.07.2018 23:30 19,7 C 19,4 C 17,8 C 66 % 1015,7 hPa 0,0 l/m 0 min 0 min 0 W/m 0,0 km/h (0 Bft) 97,87 %
18.07.2018 23:32 19,7 C 18,9 C 17,8 C 66 % 1015,7 hPa 0,0 l/m 0 min 0 min 0 W/m 0,0 km/h (0 Bft) 97,87 %
18.07.2018 23:34 19,7 C 18,9 C 17,8 C 66 % 1015,7 hPa 0,0 l/m 0 min 0 min 0 W/m 0,0 km/h (0 Bft) 100,00 %
18.07.2018 23:36 19,7 C 18,9 C 17,8 C 66 % 1015,7 hPa 0,0 l/m 0 min 0 min 0 W/m 0,0 km/h (0 Bft) 100,00 %
18.07.2018 23:38 19,7 C 18,9 C 17,2 C 66 % 1015,7 hPa 0,0 l/m 0 min 0 min 0 W/m 0,0 km/h (0 Bft) 100,00 %
18.07.2018 23:40 19,7 C 18,9 C 17,2 C 66 % 1015,7 hPa 0,0 l/m 0 min 0 min 0 W/m 0,0 km/h (0 Bft) 100,00 %
18.07.2018 23:42 19,7 C 18,9 C 17,2 C 66 % 1015,7 hPa 0,0 l/m 0 min 0 min 0 W/m 0,0 km/h (0 Bft) 100,00 %
18.07.2018 23:44 19,7 C 18,9 C 17,2 C 66 % 1015,7 hPa 0,0 l/m 0 min 0 min 0 W/m 0,0 km/h (0 Bft) 100,00 %
18.07.2018 23:46 19,7 C 18,3 C 17,2 C 66 % 1015,7 hPa 0,0 l/m 0 min 0 min 0 W/m 0,0 km/h (0 Bft) 100,00 %
18.07.2018 23:48 19,7 C 18,3 C 17,2 C 66 % 1015,7 hPa 0,0 l/m 0 min 0 min 0 W/m 0,0 km/h (0 Bft) 100,00 %
18.07.2018 23:50 19,7 C 18,3 C 17,2 C 66 % 1015,7 hPa 0,0 l/m 0 min 0 min 0 W/m 0,0 km/h (0 Bft) 100,00 %
18.07.2018 23:52 19,6 C 18,3 C 17,2 C 66 % 1015,7 hPa 0,0 l/m 0 min 0 min 0 W/m 0,0 km/h (0 Bft) 100,00 %
18.07.2018 23:54 19,6 C 18,3 C 17,2 C 66 % 1015,8 hPa 0,0 l/m 0 min 0 min 0 W/m 0,0 km/h (0 Bft) 100,00 %
18.07.2018 23:56 19,6 C 18,3 C 17,2 C 67 % 1015,8 hPa 0,0 l/m 0 min 0 min 0 W/m 0,0 km/h (0 Bft) 97,87 %
18.07.2018 23:58 19,6 C 18,3 C 17,2 C 67 % 1015,8 hPa 0,0 l/m 0 min 0 min 0 W/m 0,0 km/h (0 Bft) 97,87 %
_ Min-Zeit 06:12 04:52 05:42 18:20 19:42 - - - - 00:34 00:02
Minimum _ 13,1 C 12,2 C 12,2 C 41 % 1014,7 hPa - - - - 0,0 km/h (0 Bft) 10,00 %
_ Max-Zeit 18:10 12:26 17:34 07:38 09:04 00:00 12:08 00:00 13:44 11:46 00:00
Maximum _ 28,6 C 35,0 C 26,7 C 93 % 1017,1 hPa 0,0 l/m 4 min 0 min 1079 W/m 13,5 km/h
W-NW (3 Bft)
100,00 %
Durchschnitt _ 20,8 C 21,0 C 18,4 C 66 % 1015,9 hPa #0,0 l/m #11:08 h #0 min. 445 W/m 3,9 km/h (1 Bft) 97,46 %
© 2018 W. Hausmann